Wetterdaten: Freitag, 02.02.2018
Datum Zeit Temp. Aussen Temp. o. S. +5cm Feuchte Auss BlattFeu 1 Luftdruck Regen Sonnenschein Regendauer Solar Windben Empfang
02.02.2018 00:00 2,2 C 2,2 C 0,6 C 92 % 0 lf 1001,2 hPa 0,0 l/m 0 min 0 min 0 W/m 24,8 km/h (4 Bft) 95,74 %
02.02.2018 00:02 2,2 C 2,2 C 0,6 C 91 % 0 lf 1001,3 hPa 0,0 l/m 0 min 0 min 0 W/m 24,8 km/h (4 Bft) 97,50 %
02.02.2018 00:04 2,2 C 2,2 C 0,6 C 91 % 0 lf 1001,3 hPa 0,0 l/m 0 min 0 min 0 W/m 22,5 km/h (4 Bft) 100,00 %
02.02.2018 00:08 2,2 C 2,2 C 0,6 C 91 % 0 lf 1001,3 hPa 0,0 l/m 0 min 0 min 0 W/m 22,5 km/h (4 Bft) 94,79 %
02.02.2018 00:10 2,2 C 1,7 C 0,6 C 91 % 0 lf 1001,3 hPa 0,0 l/m 0 min 0 min 0 W/m 20,3 km/h (4 Bft) 97,87 %
02.02.2018 00:12 2,2 C 1,7 C 0,6 C 91 % 0 lf 1001,3 hPa 0,0 l/m 0 min 0 min 0 W/m 13,5 km/h (3 Bft) 97,87 %
02.02.2018 00:14 2,2 C 1,7 C 0,6 C 91 % 0 lf 1001,2 hPa 0,0 l/m 0 min 0 min 0 W/m 18,0 km/h (3 Bft) 97,83 %
02.02.2018 00:16 2,2 C 1,7 C 0,6 C 91 % 0 lf 1001,1 hPa 0,0 l/m 0 min 0 min 0 W/m 15,8 km/h (3 Bft) 93,62 %
02.02.2018 00:18 2,2 C 1,7 C 0,6 C 91 % 0 lf 1001,1 hPa 0,0 l/m 0 min 0 min 0 W/m 18,0 km/h (3 Bft) 100,00 %
02.02.2018 00:20 2,2 C 1,7 C 0,6 C 91 % 0 lf 1001,1 hPa 0,0 l/m 0 min 0 min 0 W/m 15,8 km/h (3 Bft) 97,87 %
02.02.2018 00:22 2,2 C 1,7 C 0,6 C 91 % 0 lf 1001,0 hPa 0,0 l/m 0 min 0 min 0 W/m 18,0 km/h (3 Bft) 97,87 %
02.02.2018 00:24 2,2 C 1,7 C 0,6 C 91 % 0 lf 1001,0 hPa 0,0 l/m 0 min 0 min 0 W/m 9,0 km/h (2 Bft) 97,87 %
02.02.2018 00:26 2,1 C 1,7 C 0,6 C 91 % 0 lf 1001,0 hPa 0,0 l/m 0 min 0 min 0 W/m 13,5 km/h (3 Bft) 95,65 %
02.02.2018 00:28 2,1 C 1,7 C 0,6 C 91 % 0 lf 1001,0 hPa 0,0 l/m 0 min 0 min 0 W/m 11,3 km/h (2 Bft) 95,74 %
02.02.2018 00:30 2,1 C 1,7 C 0,6 C 91 % 0 lf 1001,0 hPa 0,0 l/m 0 min 0 min 0 W/m 11,3 km/h (2 Bft) 95,74 %
02.02.2018 00:32 2,1 C 1,7 C 0,6 C 91 % 0 lf 1001,1 hPa 0,0 l/m 0 min 0 min 0 W/m 15,8 km/h (3 Bft) 91,49 %
02.02.2018 00:34 2,1 C 2,2 C 0,6 C 91 % 0 lf 1001,0 hPa 0,0 l/m 0 min 0 min 0 W/m 22,5 km/h (4 Bft) 97,87 %
02.02.2018 00:36 2,1 C 2,2 C 0,6 C 91 % 0 lf 1001,0 hPa 0,0 l/m 0 min 0 min 0 W/m 15,8 km/h (3 Bft) 97,83 %
02.02.2018 00:38 2,1 C 2,2 C 0,6 C 91 % 0 lf 1001,0 hPa 0,0 l/m 0 min 0 min 0 W/m 13,5 km/h (3 Bft) 97,87 %
02.02.2018 00:40 2,1 C 2,2 C 0,6 C 91 % 0 lf 1001,0 hPa 0,0 l/m 0 min 0 min 0 W/m 15,8 km/h (3 Bft) 97,87 %
02.02.2018 00:42 2,1 C 2,2 C 0,6 C 91 % 0 lf 1001,0 hPa 0,0 l/m 0 min 0 min 0 W/m 18,0 km/h (3 Bft) 97,87 %
02.02.2018 00:44 2,1 C 2,2 C 1,1 C 91 % 0 lf 1000,9 hPa 0,0 l/m 0 min 0 min 0 W/m 22,5 km/h (4 Bft) 95,74 %
02.02.2018 00:46 2,2 C 2,2 C 1,1 C 91 % 0 lf 1000,9 hPa 0,0 l/m 0 min 0 min 0 W/m 15,8 km/h (3 Bft) 91,49 %
02.02.2018 00:48 2,2 C 2,2 C 1,1 C 91 % 0 lf 1000,9 hPa 0,0 l/m 0 min 0 min 0 W/m 15,8 km/h (3 Bft) 97,83 %
02.02.2018 00:50 2,2 C 2,2 C 1,1 C 91 % 0 lf 1000,9 hPa 0,0 l/m 0 min 0 min 0 W/m 22,5 km/h (4 Bft) 95,74 %
02.02.2018 00:52 2,2 C 2,2 C 1,1 C 91 % 0 lf 1001,0 hPa 0,0 l/m 0 min 0 min 0 W/m 20,3 km/h (4 Bft) 95,74 %
02.02.2018 00:54 2,2 C 2,2 C 1,1 C 91 % 0 lf 1001,0 hPa 0,0 l/m 0 min 0 min 0 W/m 20,3 km/h (4 Bft) 97,87 %
02.02.2018 00:56 2,2 C 2,2 C 1,1 C 91 % 0 lf 1000,9 hPa 0,0 l/m 0 min 0 min 0 W/m 22,5 km/h (4 Bft) 100,00 %
02.02.2018 00:58 2,2 C 2,2 C 1,1 C 91 % 0 lf 1000,9 hPa 0,0 l/m 0 min 0 min 0 W/m 22,5 km/h (4 Bft) 100,00 %
02.02.2018 01:00 2,3 C 2,2 C 1,1 C 91 % 0 lf 1000,9 hPa 0,0 l/m 0 min 0 min 0 W/m 18,0 km/h (3 Bft) 97,83 %
02.02.2018 01:02 2,3 C 2,2 C 1,1 C 91 % 0 lf 1000,9 hPa 0,0 l/m 0 min 0 min 0 W/m 20,3 km/h (4 Bft) 97,87 %
02.02.2018 01:04 2,3 C 2,2 C 1,1 C 91 % 0 lf 1000,8 hPa 0,0 l/m 0 min 0 min 0 W/m 18,0 km/h (3 Bft) 100,00 %
02.02.2018 01:06 2,3 C 2,2 C 1,1 C 91 % 0 lf 1000,8 hPa 0,0 l/m 0 min 0 min 0 W/m 24,8 km/h (4 Bft) 95,74 %
02.02.2018 01:08 2,3 C 2,8 C 1,1 C 91 % 0 lf 1000,8 hPa 0,0 l/m 0 min 0 min 0 W/m 20,3 km/h (4 Bft) 100,00 %
02.02.2018 01:10 2,4 C 2,8 C 1,1 C 91 % 0 lf 1000,8 hPa 0,0 l/m 0 min 0 min 0 W/m 20,3 km/h (4 Bft) 100,00 %
02.02.2018 01:12 2,4 C 2,8 C 1,1 C 91 % 0 lf 1000,8 hPa 0,0 l/m 0 min 0 min 0 W/m 22,5 km/h (4 Bft) 100,00 %
02.02.2018 01:14 2,4 C 2,8 C 1,7 C 91 % 0 lf 1000,8 hPa 0,0 l/m 0 min 0 min 0 W/m 22,5 km/h (4 Bft) 97,87 %
02.02.2018 01:16 2,4 C 2,8 C 1,7 C 91 % 0 lf 1000,8 hPa 0,0 l/m 0 min 0 min 0 W/m 15,8 km/h (3 Bft) 93,62 %
02.02.2018 01:18 2,5 C 2,8 C 1,7 C 91 % 0 lf 1000,8 hPa 0,0 l/m 0 min 0 min 0 W/m 22,5 km/h (4 Bft) 100,00 %
02.02.2018 01:20 2,6 C 2,8 C 1,7 C 91 % 0 lf 1000,7 hPa 0,0 l/m 0 min 0 min 0 W/m 20,3 km/h (4 Bft) 95,74 %
02.02.2018 01:22 2,6 C 2,8 C 1,7 C 91 % 0 lf 1000,7 hPa 0,0 l/m 0 min 0 min 0 W/m 24,8 km/h (4 Bft) 95,74 %
02.02.2018 01:24 2,6 C 2,8 C 1,7 C 91 % 0 lf 1000,7 hPa 0,0 l/m 0 min 0 min 0 W/m 18,0 km/h (3 Bft) 100,00 %
02.02.2018 01:26 2,6 C 2,8 C 1,7 C 91 % 0 lf 1000,7 hPa 0,0 l/m 0 min 0 min 0 W/m 20,3 km/h (4 Bft) 97,83 %
02.02.2018 01:28 2,7 C 2,8 C 1,7 C 91 % 0 lf 1000,7 hPa 0,0 l/m 0 min 0 min 0 W/m 27,0 km/h (4 Bft) 100,00 %
02.02.2018 01:30 2,7 C 2,8 C 1,7 C 91 % 0 lf 1000,7 hPa 0,0 l/m 0 min 0 min 0 W/m 29,3 km/h (5 Bft) 95,74 %
02.02.2018 01:32 2,7 C 2,8 C 1,7 C 91 % 0 lf 1000,7 hPa 0,0 l/m 0 min 0 min 0 W/m 24,8 km/h (4 Bft) 93,62 %
02.02.2018 01:34 2,7 C 2,8 C 1,7 C 91 % 0 lf 1000,6 hPa 0,0 l/m 0 min 0 min 0 W/m 29,3 km/h (5 Bft) 97,87 %
02.02.2018 01:36 2,7 C 2,8 C 1,7 C 91 % 0 lf 1000,6 hPa 0,0 l/m 0 min 0 min 0 W/m 20,3 km/h (4 Bft) 95,74 %
02.02.2018 01:38 2,7 C 2,8 C 1,7 C 91 % 0 lf 1000,7 hPa 0,0 l/m 0 min 0 min 0 W/m 24,8 km/h (4 Bft) 93,48 %
02.02.2018 01:40 2,7 C 2,8 C 1,7 C 91 % 0 lf 1000,6 hPa 0,0 l/m 0 min 0 min 0 W/m 24,8 km/h (4 Bft) 95,74 %
02.02.2018 01:42 2,8 C 2,8 C 1,7 C 91 % 0 lf 1000,7 hPa 0,0 l/m 0 min 0 min 0 W/m 24,8 km/h (4 Bft) 95,74 %
02.02.2018 01:44 2,8 C 2,8 C 1,7 C 91 % 0 lf 1000,6 hPa 0,0 l/m 0 min 0 min 0 W/m 18,0 km/h (3 Bft) 95,74 %
02.02.2018 01:46 2,8 C 2,8 C 1,7 C 91 % 0 lf 1000,6 hPa 0,0 l/m 0 min 0 min 0 W/m 22,5 km/h (4 Bft) 97,87 %
02.02.2018 01:48 2,8 C 2,8 C 1,7 C 91 % 0 lf 1000,6 hPa 0,0 l/m 0 min 0 min 0 W/m 24,8 km/h (4 Bft) 95,74 %
02.02.2018 01:50 2,8 C 2,8 C 1,7 C 90 % 0 lf 1000,6 hPa 0,0 l/m 0 min 0 min 0 W/m 22,5 km/h (4 Bft) 95,65 %
02.02.2018 01:52 2,8 C 2,8 C 1,7 C 91 % 0 lf 1000,6 hPa 0,0 l/m 0 min 0 min 0 W/m 22,5 km/h (4 Bft) 95,74 %
02.02.2018 01:54 2,8 C 2,8 C 1,7 C 91 % 0 lf 1000,6 hPa 0,0 l/m 0 min 0 min 0 W/m 31,5 km/h (5 Bft) 93,62 %
02.02.2018 01:56 2,8 C 2,8 C 1,7 C 90 % 0 lf 1000,6 hPa 0,0 l/m 0 min 0 min 0 W/m 20,3 km/h (4 Bft) 95,74 %
02.02.2018 01:58 2,8 C 2,8 C 1,7 C 90 % 0 lf 1000,6 hPa 0,0 l/m 0 min 0 min 0 W/m 22,5 km/h (4 Bft) 95,74 %
02.02.2018 02:00 2,8 C 2,8 C 1,7 C 90 % 0 lf 1000,6 hPa 0,0 l/m 0 min 0 min 0 W/m 18,0 km/h (3 Bft) 91,49 %
02.02.2018 02:02 2,8 C 2,8 C 1,7 C 90 % 0 lf 1000,6 hPa 0,0 l/m 0 min 0 min 0 W/m 27,0 km/h (4 Bft) 95,65 %
02.02.2018 02:04 2,8 C 2,8 C 1,7 C 90 % 0 lf 1000,5 hPa 0,0 l/m 0 min 0 min 0 W/m 29,3 km/h (5 Bft) 97,87 %
02.02.2018 02:06 2,8 C 2,8 C 1,7 C 90 % 0 lf 1000,5 hPa 0,0 l/m 0 min 0 min 0 W/m 20,3 km/h (4 Bft) 97,87 %
02.02.2018 02:08 2,8 C 2,8 C 1,7 C 90 % 0 lf 1000,5 hPa 0,0 l/m 0 min 0 min 0 W/m 29,3 km/h (5 Bft) 95,74 %
02.02.2018 02:10 2,8 C 2,8 C 1,7 C 91 % 0 lf 1000,5 hPa 0,0 l/m 0 min 0 min 0 W/m 27,0 km/h (4 Bft) 95,74 %
02.02.2018 02:12 2,8 C 2,8 C 1,7 C 91 % 0 lf 1000,3 hPa 0,0 l/m 0 min 0 min 0 W/m 22,5 km/h (4 Bft) 95,74 %
02.02.2018 02:14 2,8 C 2,8 C 1,7 C 90 % 0 lf 1000,4 hPa 0,0 l/m 0 min 0 min 0 W/m 27,0 km/h (4 Bft) 97,83 %
02.02.2018 02:16 2,8 C 2,8 C 1,7 C 90 % 0 lf 1000,3 hPa 0,0 l/m 0 min 0 min 0 W/m 29,3 km/h (5 Bft) 95,74 %
02.02.2018 02:18 2,8 C 2,8 C 1,7 C 90 % 0 lf 1000,3 hPa 0,0 l/m 0 min 0 min 0 W/m 29,3 km/h (5 Bft) 95,74 %
02.02.2018 02:20 2,8 C 2,8 C 1,1 C 90 % 0 lf 1000,3 hPa 0,0 l/m 0 min 0 min 0 W/m 18,0 km/h (3 Bft) 97,87 %
02.02.2018 02:22 2,8 C 2,8 C 1,1 C 90 % 0 lf 1000,3 hPa 0,0 l/m 0 min 0 min 0 W/m 24,8 km/h (4 Bft) 97,87 %
02.02.2018 02:24 2,8 C 2,8 C 1,1 C 90 % 0 lf 1000,2 hPa 0,0 l/m 0 min 0 min 0 W/m 20,3 km/h (4 Bft) 97,83 %
02.02.2018 02:26 2,8 C 2,8 C 1,1 C 91 % 0 lf 1000,2 hPa 0,0 l/m 0 min 0 min 0 W/m 22,5 km/h (4 Bft) 100,00 %
02.02.2018 02:28 2,8 C 2,8 C 1,7 C 91 % 0 lf 1000,2 hPa 0,0 l/m 0 min 0 min 0 W/m 22,5 km/h (4 Bft) 100,00 %
02.02.2018 02:30 2,8 C 2,8 C 1,7 C 90 % 0 lf 1000,3 hPa 0,0 l/m 0 min 0 min 0 W/m 24,8 km/h (4 Bft) 100,00 %
02.02.2018 02:32 2,8 C 2,8 C 1,7 C 90 % 0 lf 1000,2 hPa 0,0 l/m 0 min 0 min 0 W/m 20,3 km/h (4 Bft) 97,87 %
02.02.2018 02:34 2,8 C 2,8 C 1,7 C 91 % 0 lf 1000,2 hPa 0,0 l/m 0 min 0 min 0 W/m 18,0 km/h (3 Bft) 97,87 %
02.02.2018 02:36 2,8 C 2,8 C 1,7 C 91 % 0 lf 1000,2 hPa 0,0 l/m 0 min 0 min 0 W/m 15,8 km/h (3 Bft) 95,65 %
02.02.2018 02:38 2,8 C 2,8 C 1,7 C 91 % 0 lf 1000,3 hPa 0,0 l/m 0 min 0 min 0 W/m 20,3 km/h (4 Bft) 97,87 %
02.02.2018 02:40 2,8 C 2,8 C 1,7 C 91 % 0 lf 1000,3 hPa 0,0 l/m 0 min 0 min 0 W/m 18,0 km/h (3 Bft) 97,87 %
02.02.2018 02:42 2,8 C 2,8 C 1,7 C 91 % 0 lf 1000,3 hPa 0,0 l/m 0 min 0 min 0 W/m 18,0 km/h (3 Bft) 97,87 %
02.02.2018 02:44 2,8 C 2,8 C 1,7 C 91 % 0 lf 1000,3 hPa 0,0 l/m 0 min 0 min 0 W/m 22,5 km/h (4 Bft) 95,74 %
02.02.2018 02:46 2,8 C 2,8 C 1,7 C 91 % 0 lf 1000,3 hPa 0,0 l/m 0 min 0 min 0 W/m 20,3 km/h (4 Bft) 97,87 %
02.02.2018 02:48 2,8 C 2,8 C 1,7 C 91 % 0 lf 1000,4 hPa 0,0 l/m 0 min 0 min 0 W/m 18,0 km/h (3 Bft) 95,65 %
02.02.2018 02:50 2,9 C 2,8 C 1,7 C 91 % 0 lf 1000,2 hPa 0,0 l/m 0 min 0 min 0 W/m 11,3 km/h (2 Bft) 97,87 %
02.02.2018 02:52 2,9 C 2,8 C 1,7 C 91 % 0 lf 1000,2 hPa 0,0 l/m 0 min 0 min 0 W/m 29,3 km/h (5 Bft) 95,74 %
02.02.2018 02:54 2,9 C 2,8 C 1,7 C 91 % 0 lf 1000,2 hPa 0,0 l/m 0 min 0 min 0 W/m 24,8 km/h (4 Bft) 95,74 %
02.02.2018 02:56 2,9 C 2,8 C 1,7 C 91 % 0 lf 1000,2 hPa 0,0 l/m 0 min 0 min 0 W/m 22,5 km/h (4 Bft) 97,87 %
02.02.2018 02:58 2,9 C 2,8 C 1,7 C 91 % 0 lf 1000,1 hPa 0,0 l/m 0 min 0 min 0 W/m 22,5 km/h (4 Bft) 97,87 %
02.02.2018 03:00 2,9 C 2,8 C 1,7 C 91 % 0 lf 1000,2 hPa 0,0 l/m 0 min 0 min 0 W/m 27,0 km/h (4 Bft) 93,48 %
02.02.2018 03:02 2,9 C 2,8 C 1,7 C 91 % 2 lf 1000,2 hPa 0,0 l/m 0 min 2 min 0 W/m 22,5 km/h (4 Bft) 91,49 %
02.02.2018 03:04 3,0 C 2,8 C 1,7 C 91 % 11 lf 1000,2 hPa 0,0 l/m 0 min 2 min 0 W/m 22,5 km/h (4 Bft) 95,74 %
02.02.2018 03:06 3,0 C 2,8 C 1,7 C 91 % 12 lf 1000,2 hPa 0,0 l/m 0 min 2 min 0 W/m 24,8 km/h (4 Bft) 95,74 %
02.02.2018 03:08 3,0 C 2,8 C 1,7 C 91 % 15 lf 1000,2 hPa 0,0 l/m 0 min 2 min 0 W/m 22,5 km/h (4 Bft) 91,49 %
02.02.2018 03:10 3,1 C 2,2 C 1,1 C 91 % 15 lf 1000,1 hPa 0,0 l/m 0 min 2 min 0 W/m 36,0 km/h (5 Bft) 93,62 %
02.02.2018 03:12 3,1 C 2,2 C 1,1 C 91 % 15 lf 1000,1 hPa 0,0 l/m 0 min 2 min 0 W/m 31,5 km/h (5 Bft) 93,48 %
02.02.2018 03:14 3,0 C 2,2 C 1,1 C 91 % 15 lf 1000,1 hPa 0,2 l/m 0 min 2 min 0 W/m 24,8 km/h (4 Bft) 93,62 %
02.02.2018 03:16 3,0 C 2,2 C 1,1 C 92 % 15 lf 1000,1 hPa 0,0 l/m 0 min 2 min 0 W/m 31,5 km/h (5 Bft) 93,62 %
02.02.2018 03:18 3,0 C 2,2 C 1,1 C 92 % 15 lf 1000,1 hPa 0,0 l/m 0 min 2 min 0 W/m 27,0 km/h (4 Bft) 93,62 %
02.02.2018 03:20 2,9 C 2,2 C 1,1 C 92 % 15 lf 1000,1 hPa 0,0 l/m 0 min 2 min 0 W/m 27,0 km/h (4 Bft) 91,84 %
02.02.2018 03:22 2,9 C 2,2 C 1,1 C 92 % 15 lf 1000,1 hPa 0,0 l/m 0 min 2 min 0 W/m 24,8 km/h (4 Bft) 91,30 %
02.02.2018 03:24 2,9 C 2,2 C 1,1 C 92 % 15 lf 1000,0 hPa 0,0 l/m 0 min 2 min 0 W/m 24,8 km/h (4 Bft) 93,62 %
02.02.2018 03:26 2,9 C 2,2 C 1,1 C 92 % 15 lf 1000,1 hPa 0,0 l/m 0 min 2 min 0 W/m 22,5 km/h (4 Bft) 91,49 %
02.02.2018 03:28 2,9 C 2,2 C 1,1 C 92 % 15 lf 1000,1 hPa 0,0 l/m 0 min 2 min 0 W/m 33,8 km/h (5 Bft) 91,49 %
02.02.2018 03:30 2,8 C 2,2 C 1,1 C 92 % 15 lf 1000,0 hPa 0,0 l/m 0 min 2 min 0 W/m 24,8 km/h (4 Bft) 93,62 %
02.02.2018 03:32 2,8 C 2,2 C 1,1 C 92 % 15 lf 1000,1 hPa 0,0 l/m 0 min 2 min 0 W/m 18,0 km/h (3 Bft) 91,49 %
02.02.2018 03:34 2,8 C 2,2 C 1,1 C 92 % 15 lf 1000,1 hPa 0,0 l/m 0 min 2 min 0 W/m 42,8 km/h (6 Bft) 93,48 %
02.02.2018 03:36 2,8 C 2,2 C 1,1 C 92 % 15 lf 1000,1 hPa 0,0 l/m 0 min 2 min 0 W/m 31,5 km/h (5 Bft) 91,49 %
02.02.2018 03:38 2,8 C 2,2 C 1,1 C 93 % 15 lf 1000,1 hPa 0,2 l/m 0 min 2 min 0 W/m 31,5 km/h (5 Bft) 93,62 %
02.02.2018 03:40 2,8 C 2,2 C 1,1 C 93 % 15 lf 1000,1 hPa 0,0 l/m 0 min 2 min 0 W/m 31,5 km/h (5 Bft) 89,36 %
02.02.2018 03:42 2,8 C 2,2 C 1,1 C 93 % 15 lf 1000,0 hPa 0,0 l/m 0 min 0 min 0 W/m 29,3 km/h (5 Bft) 91,49 %
02.02.2018 03:44 2,8 C 2,2 C 1,1 C 93 % 15 lf 1000,0 hPa 0,0 l/m 0 min 0 min 0 W/m 22,5 km/h (4 Bft) 95,74 %
02.02.2018 03:46 2,7 C 2,2 C 1,1 C 93 % 15 lf 999,9 hPa 0,0 l/m 0 min 0 min 0 W/m 27,0 km/h (4 Bft) 95,74 %
02.02.2018 03:48 2,7 C 2,2 C 1,1 C 93 % 15 lf 999,9 hPa 0,0 l/m 0 min 0 min 0 W/m 27,0 km/h (4 Bft) 93,48 %
02.02.2018 03:50 2,7 C 2,2 C 1,1 C 93 % 15 lf 999,9 hPa 0,0 l/m 0 min 0 min 0 W/m 22,5 km/h (4 Bft) 95,74 %
02.02.2018 03:52 2,7 C 2,2 C 1,1 C 93 % 15 lf 999,8 hPa 0,0 l/m 0 min 2 min 0 W/m 27,0 km/h (4 Bft) 97,87 %
02.02.2018 03:54 2,7 C 2,2 C 1,1 C 93 % 15 lf 999,9 hPa 0,0 l/m 0 min 2 min 0 W/m 29,3 km/h (5 Bft) 100,00 %
02.02.2018 03:56 2,7 C 2,2 C 1,1 C 93 % 15 lf 999,9 hPa 0,0 l/m 0 min 2 min 0 W/m 29,3 km/h (5 Bft) 95,74 %
02.02.2018 03:58 2,7 C 2,2 C 1,1 C 94 % 15 lf 999,9 hPa 0,0 l/m 0 min 2 min 0 W/m 24,8 km/h (4 Bft) 97,83 %
02.02.2018 04:00 2,7 C 2,2 C 1,1 C 94 % 15 lf 999,9 hPa 0,0 l/m 0 min 2 min 0 W/m 31,5 km/h (5 Bft) 100,00 %
02.02.2018 04:02 2,7 C 2,2 C 1,1 C 94 % 15 lf 999,9 hPa 0,0 l/m 0 min 2 min 0 W/m 33,8 km/h (5 Bft) 94,44 %
02.02.2018 04:04 2,7 C 2,2 C 1,1 C 94 % 15 lf 999,9 hPa 0,0 l/m 0 min 2 min 0 W/m 27,0 km/h (4 Bft) 91,49 %
02.02.2018 04:06 2,7 C 2,2 C 1,1 C 94 % 15 lf 999,9 hPa 0,0 l/m 0 min 2 min 0 W/m 31,5 km/h (5 Bft) 95,74 %
02.02.2018 04:08 2,7 C 2,2 C 1,1 C 94 % 15 lf 999,9 hPa 0,2 l/m 0 min 2 min 0 W/m 33,8 km/h (5 Bft) 89,36 %
02.02.2018 04:10 2,7 C 2,2 C 1,1 C 94 % 15 lf 1000,0 hPa 0,0 l/m 0 min 2 min 0 W/m 29,3 km/h (5 Bft) 100,00 %
02.02.2018 04:12 2,7 C 2,2 C 1,1 C 94 % 15 lf 999,8 hPa 0,0 l/m 0 min 2 min 0 W/m 31,5 km/h (5 Bft) 95,74 %
02.02.2018 04:14 2,7 C 2,2 C 1,1 C 94 % 15 lf 999,9 hPa 0,0 l/m 0 min 2 min 0 W/m 42,8 km/h (6 Bft) 100,00 %
02.02.2018 04:16 2,7 C 2,2 C 1,1 C 94 % 15 lf 999,9 hPa 0,0 l/m 0 min 2 min 0 W/m 24,8 km/h (4 Bft) 100,00 %
02.02.2018 04:18 2,7 C 2,2 C 1,7 C 94 % 15 lf 999,9 hPa 0,0 l/m 0 min 2 min 0 W/m 29,3 km/h (5 Bft) 93,62 %
02.02.2018 04:20 2,7 C 2,2 C 1,7 C 94 % 15 lf 999,9 hPa 0,0 l/m 0 min 2 min 0 W/m 33,8 km/h (5 Bft) 95,74 %
02.02.2018 04:22 2,8 C 2,2 C 1,7 C 95 % 15 lf 999,9 hPa 0,0 l/m 0 min 2 min 0 W/m 22,5 km/h (4 Bft) 95,65 %
02.02.2018 04:24 2,8 C 2,2 C 1,7 C 95 % 15 lf 999,9 hPa 0,0 l/m 0 min 0 min 0 W/m 31,5 km/h (5 Bft) 97,87 %
02.02.2018 04:26 2,8 C 2,2 C 1,7 C 95 % 15 lf 999,9 hPa 0,0 l/m 0 min 2 min 0 W/m 29,3 km/h (5 Bft) 95,74 %
02.02.2018 04:28 2,8 C 2,2 C 1,7 C 95 % 15 lf 999,9 hPa 0,0 l/m 0 min 2 min 0 W/m 40,6 km/h (6 Bft) 95,74 %
02.02.2018 04:30 2,8 C 2,2 C 1,7 C 95 % 15 lf 999,9 hPa 0,0 l/m 0 min 2 min 0 W/m 31,5 km/h (5 Bft) 97,87 %
02.02.2018 04:32 2,8 C 2,2 C 1,7 C 95 % 15 lf 999,9 hPa 0,0 l/m 0 min 2 min 0 W/m 27,0 km/h (4 Bft) 97,83 %
02.02.2018 04:34 2,8 C 2,2 C 1,7 C 95 % 15 lf 999,9 hPa 0,0 l/m 0 min 2 min 0 W/m 33,8 km/h (5 Bft) 97,87 %
02.02.2018 04:36 2,8 C 2,2 C 1,7 C 95 % 15 lf 999,9 hPa 0,0 l/m 0 min 2 min 0 W/m 31,5 km/h (5 Bft) 97,87 %
02.02.2018 04:38 2,8 C 2,2 C 1,7 C 95 % 15 lf 999,9 hPa 0,0 l/m 0 min 2 min 0 W/m 24,8 km/h (4 Bft) 97,87 %
02.02.2018 04:40 2,8 C 2,2 C 1,7 C 95 % 15 lf 1000,0 hPa 0,0 l/m 0 min 2 min 0 W/m 29,3 km/h (5 Bft) 95,74 %
02.02.2018 04:42 2,8 C 2,2 C 1,7 C 95 % 15 lf 999,9 hPa 0,0 l/m 0 min 2 min 0 W/m 29,3 km/h (5 Bft) 97,87 %
02.02.2018 04:44 2,8 C 2,2 C 1,7 C 95 % 15 lf 999,9 hPa 0,2 l/m 0 min 2 min 0 W/m 27,0 km/h (4 Bft) 95,65 %
02.02.2018 04:46 2,8 C 2,2 C 1,7 C 95 % 15 lf 999,8 hPa 0,0 l/m 0 min 2 min 0 W/m 29,3 km/h (5 Bft) 97,87 %
02.02.2018 04:48 2,8 C 2,2 C 1,7 C 95 % 15 lf 999,9 hPa 0,0 l/m 0 min 2 min 0 W/m 33,8 km/h (5 Bft) 95,74 %
02.02.2018 04:50 2,8 C 2,2 C 1,7 C 95 % 15 lf 999,8 hPa 0,0 l/m 0 min 2 min 0 W/m 29,3 km/h (5 Bft) 95,74 %
02.02.2018 04:52 2,8 C 2,2 C 1,7 C 95 % 15 lf 999,9 hPa 0,0 l/m 0 min 2 min 0 W/m 36,0 km/h (5 Bft) 95,74 %
02.02.2018 04:54 2,8 C 2,2 C 1,7 C 95 % 15 lf 999,9 hPa 0,0 l/m 0 min 2 min 0 W/m 27,0 km/h (4 Bft) 93,62 %
02.02.2018 04:56 2,8 C 2,2 C 1,7 C 95 % 15 lf 999,9 hPa 0,0 l/m 0 min 0 min 0 W/m 29,3 km/h (5 Bft) 97,83 %
02.02.2018 04:58 2,8 C 2,2 C 1,7 C 95 % 15 lf 999,9 hPa 0,0 l/m 0 min 2 min 0 W/m 27,0 km/h (4 Bft) 97,87 %
02.02.2018 05:00 2,8 C 2,2 C 1,7 C 95 % 15 lf 999,9 hPa 0,0 l/m 0 min 2 min 0 W/m 31,5 km/h (5 Bft) 100,00 %
02.02.2018 05:02 2,8 C 2,2 C 1,7 C 96 % 15 lf 1000,0 hPa 0,0 l/m 0 min 2 min 0 W/m 36,0 km/h (5 Bft) 100,00 %
02.02.2018 05:04 2,8 C 2,2 C 1,7 C 96 % 15 lf 999,9 hPa 0,0 l/m 0 min 2 min 0 W/m 24,8 km/h (4 Bft) 97,87 %
02.02.2018 05:06 2,8 C 2,2 C 1,7 C 95 % 15 lf 1000,0 hPa 0,0 l/m 0 min 0 min 0 W/m 27,0 km/h (4 Bft) 95,74 %
02.02.2018 05:08 2,8 C 2,2 C 1,7 C 95 % 15 lf 1000,0 hPa 0,0 l/m 0 min 0 min 0 W/m 27,0 km/h (4 Bft) 100,00 %
02.02.2018 05:10 2,8 C 2,2 C 1,7 C 96 % 15 lf 1000,0 hPa 0,0 l/m 0 min 0 min 0 W/m 27,0 km/h (4 Bft) 100,00 %
02.02.2018 05:12 2,8 C 2,2 C 1,7 C 96 % 15 lf 1000,0 hPa 0,0 l/m 0 min 2 min 0 W/m 29,3 km/h (5 Bft) 100,00 %
02.02.2018 05:14 2,8 C 2,2 C 1,7 C 96 % 15 lf 1000,0 hPa 0,0 l/m 0 min 2 min 0 W/m 22,5 km/h (4 Bft) 97,87 %
02.02.2018 05:16 2,8 C 2,2 C 1,7 C 96 % 15 lf 1000,0 hPa 0,0 l/m 0 min 2 min 0 W/m 27,0 km/h (4 Bft) 97,87 %
02.02.2018 05:18 2,8 C 2,2 C 1,7 C 96 % 15 lf 999,9 hPa 0,0 l/m 0 min 0 min 0 W/m 22,5 km/h (4 Bft) 93,62 %
02.02.2018 05:20 2,8 C 2,8 C 1,7 C 96 % 15 lf 1000,0 hPa 0,0 l/m 0 min 2 min 0 W/m 38,3 km/h (5 Bft) 95,65 %
02.02.2018 05:22 2,8 C 2,8 C 1,7 C 96 % 15 lf 1000,0 hPa 0,0 l/m 0 min 2 min 0 W/m 24,8 km/h (4 Bft) 97,87 %
02.02.2018 05:24 2,9 C 2,8 C 1,7 C 96 % 15 lf 999,9 hPa 0,0 l/m 0 min 0 min 0 W/m 27,0 km/h (4 Bft) 97,87 %
02.02.2018 05:26 2,9 C 2,8 C 1,7 C 96 % 15 lf 999,9 hPa 0,0 l/m 0 min 0 min 0 W/m 33,8 km/h (5 Bft) 97,87 %
02.02.2018 05:28 2,9 C 2,8 C 1,7 C 96 % 15 lf 999,9 hPa 0,0 l/m 0 min 0 min 0 W/m 24,8 km/h (4 Bft) 95,74 %
02.02.2018 05:30 2,9 C 2,8 C 1,7 C 96 % 15 lf 1000,0 hPa 0,0 l/m 0 min 2 min 0 W/m 36,0 km/h (5 Bft) 97,87 %
02.02.2018 05:32 2,9 C 2,8 C 1,7 C 96 % 15 lf 1000,0 hPa 0,0 l/m 0 min 2 min 0 W/m 31,5 km/h (5 Bft) 100,00 %
02.02.2018 05:34 2,9 C 2,8 C 1,7 C 96 % 15 lf 999,9 hPa 0,0 l/m 0 min 0 min 0 W/m 27,0 km/h (4 Bft) 97,87 %
02.02.2018 05:35 2,9 C 2,8 C 1,7 C 96 % 15 lf 1000,0 hPa 0,0 l/m 0 min 0 min 0 W/m 33,8 km/h (5 Bft) 100,00 %
02.02.2018 05:40 3,0 C 2,8 C 1,7 C 96 % 15 lf 1000,0 hPa 0,0 l/m 0 min 0 min 0 W/m 27,0 km/h (4 Bft) 100,00 %
02.02.2018 05:42 3,0 C 2,8 C 1,7 C 96 % 15 lf 1000,1 hPa 0,0 l/m 0 min 0 min 0 W/m 31,5 km/h (5 Bft) 98,28 %
02.02.2018 05:44 3,0 C 2,8 C 1,7 C 96 % 15 lf 1000,1 hPa 0,0 l/m 0 min 0 min 0 W/m 20,3 km/h (4 Bft) 97,87 %
02.02.2018 05:46 3,0 C 2,8 C 1,7 C 96 % 15 lf 1000,1 hPa 0,0 l/m 0 min 0 min 0 W/m 24,8 km/h (4 Bft) 97,14 %
02.02.2018 05:48 3,0 C 2,8 C 1,7 C 96 % 15 lf 1000,1 hPa 0,0 l/m 0 min 2 min 0 W/m 24,8 km/h (4 Bft) 100,00 %
02.02.2018 05:50 3,0 C 2,8 C 1,7 C 96 % 15 lf 1000,1 hPa 0,0 l/m 0 min 0 min 0 W/m 22,5 km/h (4 Bft) 98,00 %
02.02.2018 05:52 3,0 C 2,8 C 1,7 C 96 % 15 lf 1000,0 hPa 0,0 l/m 0 min 0 min 0 W/m 27,0 km/h (4 Bft) 100,00 %
02.02.2018 05:54 3,1 C 2,8 C 1,7 C 96 % 15 lf 1000,0 hPa 0,0 l/m 0 min 0 min 0 W/m 24,8 km/h (4 Bft) 97,87 %
02.02.2018 05:56 3,1 C 2,8 C 1,7 C 96 % 15 lf 1000,0 hPa 0,0 l/m 0 min 0 min 0 W/m 27,0 km/h (4 Bft) 95,92 %
02.02.2018 05:58 3,1 C 2,8 C 1,7 C 96 % 15 lf 1000,0 hPa 0,0 l/m 0 min 0 min 0 W/m 29,3 km/h (5 Bft) 94,29 %
02.02.2018 06:00 3,1 C 2,8 C 1,7 C 96 % 15 lf 1000,0 hPa 0,0 l/m 0 min 0 min 0 W/m 29,3 km/h (5 Bft) 96,30 %
02.02.2018 06:02 3,1 C 2,8 C 1,7 C 96 % 15 lf 1000,0 hPa 0,0 l/m 0 min 0 min 0 W/m 27,0 km/h (4 Bft) 96,00 %
02.02.2018 06:04 3,1 C 2,8 C 1,7 C 96 % 15 lf 1000,0 hPa 0,0 l/m 0 min 0 min 0 W/m 27,0 km/h (4 Bft) 97,92 %
02.02.2018 06:06 3,1 C 2,8 C 1,7 C 96 % 15 lf 1000,0 hPa 0,0 l/m 0 min 0 min 0 W/m 33,8 km/h (5 Bft) 95,12 %
02.02.2018 06:08 3,1 C 2,8 C 1,7 C 96 % 15 lf 1000,0 hPa 0,0 l/m 0 min 0 min 0 W/m 27,0 km/h (4 Bft) 96,00 %
02.02.2018 06:10 3,1 C 2,8 C 1,7 C 96 % 15 lf 999,9 hPa 0,0 l/m 0 min 0 min 0 W/m 29,3 km/h (5 Bft) 98,00 %
02.02.2018 06:12 3,1 C 2,8 C 1,7 C 96 % 15 lf 1000,0 hPa 0,0 l/m 0 min 0 min 0 W/m 24,8 km/h (4 Bft) 97,14 %
02.02.2018 06:14 3,1 C 2,8 C 1,7 C 96 % 15 lf 999,9 hPa 0,0 l/m 0 min 0 min 0 W/m 24,8 km/h (4 Bft) 95,74 %
02.02.2018 06:16 3,1 C 2,8 C 1,7 C 96 % 15 lf 1000,0 hPa 0,0 l/m 0 min 0 min 0 W/m 33,8 km/h (5 Bft) 97,87 %
02.02.2018 06:18 3,1 C 2,8 C 1,7 C 96 % 15 lf 999,9 hPa 0,0 l/m 0 min 0 min 0 W/m 20,3 km/h (4 Bft) 98,18 %
02.02.2018 06:20 3,1 C 2,8 C 1,7 C 96 % 15 lf 1000,0 hPa 0,0 l/m 0 min 0 min 0 W/m 27,0 km/h (4 Bft) 94,00 %
02.02.2018 06:22 3,1 C 2,8 C 1,7 C 96 % 15 lf 1000,0 hPa 0,0 l/m 0 min 0 min 0 W/m 27,0 km/h (4 Bft) 97,87 %
02.02.2018 06:24 3,1 C 2,8 C 1,7 C 96 % 15 lf 1000,0 hPa 0,0 l/m 0 min 0 min 0 W/m 29,3 km/h (5 Bft) 97,87 %
02.02.2018 06:26 3,1 C 2,8 C 1,7 C 96 % 15 lf 999,9 hPa 0,0 l/m 0 min 0 min 0 W/m 38,3 km/h (5 Bft) 97,37 %
02.02.2018 06:28 3,2 C 2,8 C 1,7 C 96 % 15 lf 999,9 hPa 0,0 l/m 0 min 0 min 0 W/m 24,8 km/h (4 Bft) 97,83 %
02.02.2018 06:30 3,2 C 2,8 C 1,7 C 96 % 15 lf 999,8 hPa 0,0 l/m 0 min 0 min 0 W/m 33,8 km/h (5 Bft) 97,87 %
02.02.2018 06:32 3,2 C 2,8 C 1,7 C 96 % 15 lf 999,8 hPa 0,0 l/m 0 min 0 min 0 W/m 31,5 km/h (5 Bft) 97,87 %
02.02.2018 06:34 3,2 C 2,8 C 1,7 C 96 % 15 lf 999,8 hPa 0,0 l/m 0 min 0 min 0 W/m 29,3 km/h (5 Bft) 96,43 %
02.02.2018 06:36 3,2 C 2,8 C 1,7 C 96 % 15 lf 999,8 hPa 0,0 l/m 0 min 0 min 0 W/m 33,8 km/h (5 Bft) 92,11 %
02.02.2018 06:38 3,2 C 2,8 C 1,7 C 96 % 15 lf 999,8 hPa 0,0 l/m 0 min 0 min 0 W/m 33,8 km/h (5 Bft) 91,84 %
02.02.2018 06:40 3,2 C 2,8 C 1,7 C 96 % 15 lf 999,9 hPa 0,0 l/m 0 min 0 min 0 W/m 29,3 km/h (5 Bft) 92,00 %
02.02.2018 06:42 3,2 C 2,8 C 1,7 C 96 % 15 lf 999,9 hPa 0,0 l/m 0 min 0 min 0 W/m 36,0 km/h (5 Bft) 94,00 %
02.02.2018 06:44 3,2 C 2,8 C 1,7 C 96 % 15 lf 999,9 hPa 0,0 l/m 0 min 2 min 0 W/m 40,6 km/h (6 Bft) 95,74 %
02.02.2018 06:46 3,2 C 2,8 C 1,7 C 96 % 15 lf 999,9 hPa 0,0 l/m 0 min 0 min 0 W/m 29,3 km/h (5 Bft) 97,87 %
02.02.2018 06:48 3,1 C 2,8 C 1,7 C 96 % 15 lf 999,8 hPa 0,0 l/m 0 min 0 min 0 W/m 31,5 km/h (5 Bft) 92,11 %
02.02.2018 06:50 3,1 C 2,8 C 1,7 C 96 % 14 lf 999,9 hPa 0,0 l/m 0 min 0 min 0 W/m 33,8 km/h (5 Bft) 98,28 %
02.02.2018 06:52 3,1 C 2,8 C 1,7 C 96 % 15 lf 999,8 hPa 0,0 l/m 0 min 0 min 0 W/m 33,8 km/h (5 Bft) 94,29 %
02.02.2018 06:54 3,1 C 2,8 C 1,7 C 96 % 14 lf 999,9 hPa 0,0 l/m 0 min 0 min 0 W/m 27,0 km/h (4 Bft) 95,74 %
02.02.2018 06:56 3,1 C 2,8 C 1,7 C 96 % 14 lf 999,9 hPa 0,0 l/m 0 min 0 min 0 W/m 51,8 km/h (7 Bft) 90,00 %
02.02.2018 06:58 3,1 C 2,8 C 1,7 C 96 % 14 lf 999,8 hPa 0,0 l/m 0 min 0 min 0 W/m 38,3 km/h (5 Bft) 96,00 %
02.02.2018 07:00 3,1 C 2,8 C 1,7 C 96 % 14 lf 999,8 hPa 0,0 l/m 0 min 0 min 0 W/m 29,3 km/h (5 Bft) 95,74 %
02.02.2018 07:02 3,1 C 2,8 C 1,7 C 96 % 14 lf 999,8 hPa 0,0 l/m 0 min 0 min 0 W/m 33,8 km/h (5 Bft) 93,88 %
02.02.2018 07:04 3,1 C 2,8 C 1,7 C 96 % 13 lf 999,8 hPa 0,0 l/m 0 min 0 min 0 W/m 24,8 km/h (4 Bft) 92,11 %
02.02.2018 07:06 3,1 C 2,8 C 1,7 C 96 % 14 lf 999,7 hPa 0,0 l/m 0 min 0 min 0 W/m 27,0 km/h (4 Bft) 93,62 %
02.02.2018 07:08 3,1 C 2,8 C 1,7 C 96 % 12 lf 999,7 hPa 0,0 l/m 0 min 0 min 0 W/m 38,3 km/h (5 Bft) 93,62 %
02.02.2018 07:10 3,1 C 2,8 C 1,7 C 96 % 13 lf 999,9 hPa 0,0 l/m 0 min 0 min 0 W/m 31,5 km/h (5 Bft) 93,62 %
02.02.2018 07:12 3,1 C 2,8 C 1,7 C 96 % 12 lf 999,9 hPa 0,0 l/m 0 min 0 min 0 W/m 27,0 km/h (4 Bft) 93,62 %
02.02.2018 07:14 3,1 C 2,8 C 1,7 C 96 % 11 lf 999,8 hPa 0,0 l/m 0 min 0 min 0 W/m 29,3 km/h (5 Bft) 90,74 %
02.02.2018 07:16 3,1 C 2,8 C 1,7 C 96 % 10 lf 999,8 hPa 0,0 l/m 0 min 0 min 0 W/m 24,8 km/h (4 Bft) 92,11 %
02.02.2018 07:18 3,1 C 2,8 C 1,7 C 96 % 10 lf 999,8 hPa 0,0 l/m 0 min 2 min 0 W/m 31,5 km/h (5 Bft) 94,74 %
02.02.2018 07:20 3,1 C 2,8 C 1,7 C 96 % 9 lf 999,8 hPa 0,0 l/m 0 min 0 min 0 W/m 27,0 km/h (4 Bft) 94,00 %
02.02.2018 07:22 3,1 C 2,8 C 1,7 C 96 % 9 lf 999,8 hPa 0,0 l/m 0 min 0 min 0 W/m 20,3 km/h (4 Bft) 91,43 %
02.02.2018 07:24 3,1 C 2,8 C 1,7 C 96 % 8 lf 999,8 hPa 0,0 l/m 0 min 0 min 0 W/m 27,0 km/h (4 Bft) 93,62 %
02.02.2018 07:26 3,2 C 2,8 C 1,7 C 96 % 6 lf 999,8 hPa 0,0 l/m 0 min 0 min 0 W/m 29,3 km/h (5 Bft) 93,48 %
02.02.2018 07:28 3,2 C 2,8 C 1,7 C 96 % 6 lf 999,8 hPa 0,0 l/m 0 min 0 min 0 W/m 29,3 km/h (5 Bft) 93,62 %
02.02.2018 07:30 3,2 C 2,8 C 1,7 C 96 % 5 lf 999,8 hPa 0,0 l/m 0 min 0 min 0 W/m 27,0 km/h (4 Bft) 92,00 %
02.02.2018 07:32 3,2 C 2,8 C 1,7 C 96 % 4 lf 999,8 hPa 0,0 l/m 0 min 0 min 0 W/m 33,8 km/h (5 Bft) 91,49 %
02.02.2018 07:34 3,2 C 2,8 C 1,7 C 96 % 4 lf 999,7 hPa 0,0 l/m 0 min 0 min 0 W/m 36,0 km/h (5 Bft) 92,00 %
02.02.2018 07:36 3,2 C 2,8 C 1,7 C 96 % 4 lf 999,8 hPa 0,0 l/m 0 min 0 min 0 W/m 33,8 km/h (5 Bft) 93,48 %
02.02.2018 07:38 3,2 C 2,8 C 1,7 C 96 % 4 lf 999,8 hPa 0,0 l/m 0 min 0 min 0 W/m 31,5 km/h (5 Bft) 93,62 %
02.02.2018 07:40 3,2 C 2,8 C 1,7 C 96 % 4 lf 999,9 hPa 0,0 l/m 0 min 0 min 0 W/m 33,8 km/h (5 Bft) 97,87 %
02.02.2018 07:42 3,2 C 2,8 C 1,7 C 96 % 4 lf 999,8 hPa 0,0 l/m 0 min 0 min 0 W/m 24,8 km/h (4 Bft) 100,00 %
02.02.2018 07:44 3,2 C 2,8 C 1,7 C 96 % 4 lf 999,8 hPa 0,0 l/m 0 min 0 min 0 W/m 31,5 km/h (5 Bft) 97,37 %
02.02.2018 07:46 3,2 C 2,8 C 1,7 C 96 % 4 lf 999,8 hPa 0,0 l/m 0 min 0 min 0 W/m 33,8 km/h (5 Bft) 97,87 %
02.02.2018 07:48 3,2 C 2,8 C 1,7 C 96 % 4 lf 999,9 hPa 0,0 l/m 0 min 0 min 0 W/m 31,5 km/h (5 Bft) 100,00 %
02.02.2018 07:50 3,2 C 2,8 C 1,7 C 96 % 4 lf 999,8 hPa 0,0 l/m 0 min 2 min 0 W/m 33,8 km/h (5 Bft) 100,00 %
02.02.2018 07:52 3,2 C 2,8 C 1,7 C 95 % 4 lf 999,7 hPa 0,0 l/m 0 min 0 min 0 W/m 31,5 km/h (5 Bft) 100,00 %
02.02.2018 07:54 3,2 C 2,8 C 1,7 C 96 % 3 lf 999,7 hPa 0,0 l/m 0 min 0 min 0 W/m 36,0 km/h (5 Bft) 100,00 %
02.02.2018 07:56 3,2 C 2,8 C 1,7 C 95 % 3 lf 999,8 hPa 0,0 l/m 0 min 0 min 0 W/m 27,0 km/h (4 Bft) 100,00 %
02.02.2018 07:58 3,2 C 2,8 C 1,7 C 95 % 3 lf 999,7 hPa 0,0 l/m 0 min 0 min 0 W/m 27,0 km/h (4 Bft) 100,00 %
02.02.2018 08:00 3,2 C 2,8 C 1,7 C 95 % 2 lf 999,7 hPa 0,0 l/m 0 min 2 min 0 W/m 38,3 km/h (5 Bft) 100,00 %
02.02.2018 08:02 3,2 C 2,8 C 1,7 C 95 % 3 lf 999,7 hPa 0,0 l/m 0 min 0 min 0 W/m 27,0 km/h (4 Bft) 95,65 %
02.02.2018 08:04 3,2 C 2,8 C 1,7 C 95 % 4 lf 999,8 hPa 0,0 l/m 0 min 0 min 0 W/m 36,0 km/h (5 Bft) 97,87 %
02.02.2018 08:06 3,3 C 2,8 C 1,7 C 95 % 5 lf 999,8 hPa 0,0 l/m 0 min 0 min 0 W/m 29,3 km/h (5 Bft) 100,00 %
02.02.2018 08:08 3,3 C 2,8 C 1,7 C 95 % 7 lf 999,7 hPa 0,0 l/m 0 min 0 min 0 W/m 33,8 km/h (5 Bft) 97,87 %
02.02.2018 08:10 3,3 C 2,8 C 1,7 C 95 % 7 lf 999,8 hPa 0,0 l/m 0 min 0 min 0 W/m 29,3 km/h (5 Bft) 100,00 %
02.02.2018 08:12 3,3 C 2,8 C 1,7 C 95 % 6 lf 999,7 hPa 0,0 l/m 0 min 0 min 1 W/m 22,5 km/h (4 Bft) 100,00 %
02.02.2018 08:14 3,3 C 2,8 C 1,7 C 95 % 5 lf 999,7 hPa 0,0 l/m 0 min 0 min 5 W/m 40,6 km/h (6 Bft) 98,00 %
02.02.2018 08:16 3,3 C 2,8 C 1,7 C 95 % 4 lf 999,8 hPa 0,0 l/m 0 min 2 min 5 W/m 31,5 km/h (5 Bft) 100,00 %
02.02.2018 08:18 3,3 C 2,8 C 1,7 C 95 % 4 lf 999,7 hPa 0,0 l/m 0 min 2 min 7 W/m 36,0 km/h (5 Bft) 100,00 %
02.02.2018 08:20 3,3 C 2,8 C 1,7 C 95 % 3 lf 999,7 hPa 0,0 l/m 0 min 0 min 7 W/m 38,3 km/h (5 Bft) 100,00 %
02.02.2018 08:22 3,3 C 2,8 C 1,7 C 95 % 3 lf 999,8 hPa 0,0 l/m 0 min 2 min 9 W/m 33,8 km/h (5 Bft) 95,74 %
02.02.2018 08:24 3,3 C 2,8 C 1,7 C 95 % 3 lf 999,8 hPa 0,0 l/m 0 min 0 min 9 W/m 24,8 km/h (4 Bft) 97,83 %
02.02.2018 08:26 3,3 C 2,8 C 1,7 C 95 % 2 lf 999,8 hPa 0,0 l/m 0 min 0 min 11 W/m 33,8 km/h (5 Bft) 97,87 %
02.02.2018 08:28 3,3 C 2,8 C 1,7 C 95 % 2 lf 999,8 hPa 0,0 l/m 0 min 0 min 11 W/m 29,3 km/h (5 Bft) 100,00 %
02.02.2018 08:30 3,3 C 3,3 C 1,7 C 95 % 3 lf 999,8 hPa 0,0 l/m 0 min 2 min 11 W/m 20,3 km/h (4 Bft) 100,00 %
02.02.2018 08:32 3,3 C 3,3 C 1,7 C 95 % 3 lf 999,8 hPa 0,0 l/m 0 min 0 min 13 W/m 31,5 km/h (5 Bft) 100,00 %
02.02.2018 08:34 3,3 C 3,3 C 1,7 C 95 % 3 lf 999,8 hPa 0,0 l/m 0 min 2 min 14 W/m 24,8 km/h (4 Bft) 97,87 %
02.02.2018 08:36 3,3 C 3,3 C 1,7 C 95 % 3 lf 999,8 hPa 0,0 l/m 0 min 2 min 15 W/m 33,8 km/h (5 Bft) 95,65 %
02.02.2018 08:38 3,3 C 3,3 C 1,7 C 95 % 2 lf 999,9 hPa 0,0 l/m 0 min 2 min 16 W/m 38,3 km/h (5 Bft) 100,00 %
02.02.2018 08:40 3,3 C 3,3 C 1,7 C 95 % 2 lf 999,9 hPa 0,0 l/m 0 min 2 min 19 W/m 36,0 km/h (5 Bft) 100,00 %
02.02.2018 08:42 3,3 C 3,3 C 1,7 C 95 % 2 lf 999,9 hPa 0,0 l/m 0 min 0 min 25 W/m 29,3 km/h (5 Bft) 100,00 %
02.02.2018 08:44 3,3 C 3,3 C 1,7 C 95 % 1 lf 999,9 hPa 0,0 l/m 0 min 2 min 26 W/m 33,8 km/h (5 Bft) 97,87 %
02.02.2018 08:46 3,3 C 3,3 C 1,7 C 95 % 1 lf 999,9 hPa 0,0 l/m 0 min 0 min 25 W/m 31,5 km/h (5 Bft) 95,74 %
02.02.2018 08:48 3,3 C 3,3 C 1,7 C 95 % 1 lf 999,9 hPa 0,0 l/m 0 min 0 min 25 W/m 31,5 km/h (5 Bft) 97,83 %
02.02.2018 08:50 3,3 C 3,3 C 1,7 C 95 % 1 lf 999,9 hPa 0,0 l/m 0 min 0 min 24 W/m 36,0 km/h (5 Bft) 95,74 %
02.02.2018 08:52 3,3 C 3,3 C 1,7 C 95 % 1 lf 999,9 hPa 0,0 l/m 0 min 0 min 22 W/m 36,0 km/h (5 Bft) 97,87 %
02.02.2018 08:54 3,3 C 3,3 C 1,7 C 95 % 1 lf 1000,0 hPa 0,0 l/m 0 min 0 min 24 W/m 27,0 km/h (4 Bft) 97,87 %
02.02.2018 08:56 3,3 C 3,3 C 2,2 C 95 % 1 lf 1000,0 hPa 0,0 l/m 0 min 0 min 25 W/m 31,5 km/h (5 Bft) 91,49 %
02.02.2018 08:58 3,3 C 3,3 C 2,2 C 95 % 1 lf 1000,0 hPa 0,0 l/m 0 min 0 min 25 W/m 38,3 km/h (5 Bft) 95,74 %
02.02.2018 09:00 3,3 C 3,3 C 2,2 C 95 % 2 lf 999,9 hPa 0,0 l/m 0 min 0 min 24 W/m 22,5 km/h (4 Bft) 95,65 %
02.02.2018 09:02 3,3 C 3,3 C 2,2 C 95 % 2 lf 1000,0 hPa 0,0 l/m 0 min 2 min 22 W/m 29,3 km/h (5 Bft) 97,87 %
02.02.2018 09:04 3,4 C 3,3 C 2,2 C 95 % 9 lf 1000,0 hPa 0,0 l/m 0 min 2 min 19 W/m 22,5 km/h (4 Bft) 95,74 %
02.02.2018 09:06 3,4 C 3,3 C 2,2 C 95 % 15 lf 1000,0 hPa 0,0 l/m 0 min 2 min 20 W/m 33,8 km/h (5 Bft) 95,74 %
02.02.2018 09:08 3,4 C 3,3 C 2,2 C 95 % 15 lf 1000,0 hPa 0,0 l/m 0 min 2 min 19 W/m 20,3 km/h (4 Bft) 91,49 %
02.02.2018 09:10 3,4 C 3,3 C 2,2 C 95 % 15 lf 1000,1 hPa 0,0 l/m 0 min 2 min 16 W/m 33,8 km/h (5 Bft) 95,74 %
02.02.2018 09:12 3,4 C 3,3 C 1,7 C 95 % 15 lf 1000,0 hPa 0,0 l/m 0 min 2 min 12 W/m 24,8 km/h (4 Bft) 93,48 %
02.02.2018 09:14 3,4 C 3,3 C 1,7 C 95 % 15 lf 1000,1 hPa 0,0 l/m 0 min 2 min 11 W/m 33,8 km/h (5 Bft) 93,62 %
02.02.2018 09:16 3,4 C 2,8 C 1,7 C 95 % 15 lf 1000,1 hPa 0,0 l/m 0 min 2 min 11 W/m 33,8 km/h (5 Bft) 95,74 %
02.02.2018 09:18 3,3 C 2,8 C 1,7 C 95 % 15 lf 1000,1 hPa 0,0 l/m 0 min 2 min 11 W/m 27,0 km/h (4 Bft) 95,74 %
02.02.2018 09:20 3,3 C 2,8 C 1,7 C 95 % 15 lf 1000,1 hPa 0,0 l/m 0 min 2 min 12 W/m 33,8 km/h (5 Bft) 93,62 %
02.02.2018 09:22 3,3 C 2,8 C 1,7 C 95 % 15 lf 1000,1 hPa 0,2 l/m 0 min 2 min 12 W/m 24,8 km/h (4 Bft) 93,62 %
02.02.2018 09:24 3,3 C 2,8 C 1,7 C 95 % 15 lf 1000,1 hPa 0,0 l/m 0 min 2 min 15 W/m 31,5 km/h (5 Bft) 93,48 %
02.02.2018 09:26 3,3 C 2,8 C 1,7 C 95 % 15 lf 1000,1 hPa 0,0 l/m 0 min 2 min 14 W/m 33,8 km/h (5 Bft) 93,62 %
02.02.2018 09:28 3,3 C 2,8 C 1,7 C 95 % 15 lf 1000,0 hPa 0,0 l/m 0 min 2 min 16 W/m 29,3 km/h (5 Bft) 93,62 %
02.02.2018 09:30 3,2 C 2,8 C 1,7 C 95 % 15 lf 1000,1 hPa 0,0 l/m 0 min 2 min 15 W/m 33,8 km/h (5 Bft) 95,74 %
02.02.2018 09:32 3,2 C 2,8 C 1,7 C 95 % 15 lf 1000,1 hPa 0,0 l/m 0 min 2 min 17 W/m 24,8 km/h (4 Bft) 93,62 %
02.02.2018 09:34 3,2 C 2,8 C 1,7 C 95 % 15 lf 1000,1 hPa 0,0 l/m 0 min 2 min 17 W/m 38,3 km/h (5 Bft) 95,65 %
02.02.2018 09:36 3,2 C 2,8 C 1,7 C 95 % 15 lf 1000,1 hPa 0,0 l/m 0 min 2 min 16 W/m 36,0 km/h (5 Bft) 97,87 %
02.02.2018 09:38 3,2 C 2,8 C 1,7 C 95 % 15 lf 1000,1 hPa 0,0 l/m 0 min 2 min 14 W/m 33,8 km/h (5 Bft) 95,74 %
02.02.2018 09:40 3,1 C 2,8 C 1,7 C 95 % 15 lf 1000,2 hPa 0,0 l/m 0 min 2 min 14 W/m 27,0 km/h (4 Bft) 97,87 %
02.02.2018 09:42 3,1 C 2,8 C 1,7 C 95 % 15 lf 1000,1 hPa 0,0 l/m 0 min 2 min 18 W/m 27,0 km/h (4 Bft) 95,74 %
02.02.2018 09:44 3,1 C 2,8 C 1,7 C 95 % 15 lf 1000,1 hPa 0,0 l/m 0 min 2 min 17 W/m 27,0 km/h (4 Bft) 95,74 %
02.02.2018 09:46 3,1 C 2,8 C 1,7 C 95 % 15 lf 1000,1 hPa 0,0 l/m 0 min 2 min 21 W/m 31,5 km/h (5 Bft) 97,83 %
02.02.2018 09:48 3,0 C 2,8 C 1,7 C 95 % 15 lf 1000,1 hPa 0,0 l/m 0 min 2 min 21 W/m 31,5 km/h (5 Bft) 93,62 %
02.02.2018 09:50 3,0 C 2,8 C 1,7 C 95 % 15 lf 1000,1 hPa 0,0 l/m 0 min 2 min 21 W/m 36,0 km/h (5 Bft) 93,62 %
02.02.2018 09:52 3,0 C 2,8 C 1,7 C 95 % 15 lf 1000,1 hPa 0,0 l/m 0 min 2 min 22 W/m 33,8 km/h (5 Bft) 95,74 %
02.02.2018 09:54 3,0 C 2,8 C 1,7 C 95 % 15 lf 1000,2 hPa 0,0 l/m 0 min 2 min 17 W/m 33,8 km/h (5 Bft) 97,87 %
02.02.2018 09:56 2,9 C 2,8 C 1,7 C 95 % 15 lf 1000,3 hPa 0,0 l/m 0 min 2 min 18 W/m 31,5 km/h (5 Bft) 97,87 %
02.02.2018 09:58 2,9 C 2,8 C 1,7 C 95 % 15 lf 1000,3 hPa 0,0 l/m 0 min 2 min 19 W/m 29,3 km/h (5 Bft) 97,83 %
02.02.2018 10:00 2,9 C 2,8 C 1,7 C 95 % 15 lf 1000,4 hPa 0,0 l/m 0 min 2 min 23 W/m 27,0 km/h (4 Bft) 91,49 %
02.02.2018 10:02 2,9 C 2,8 C 1,7 C 95 % 15 lf 1000,4 hPa 0,0 l/m 0 min 2 min 26 W/m 24,8 km/h (4 Bft) 93,62 %
02.02.2018 10:04 2,9 C 2,8 C 1,7 C 95 % 15 lf 1000,4 hPa 0,0 l/m 0 min 2 min 25 W/m 22,5 km/h (4 Bft) 97,87 %
02.02.2018 10:06 2,9 C 2,8 C 1,7 C 95 % 15 lf 1000,4 hPa 0,0 l/m 0 min 0 min 25 W/m 31,5 km/h (5 Bft) 95,74 %
02.02.2018 10:08 2,9 C 2,8 C 1,7 C 95 % 15 lf 1000,4 hPa 0,0 l/m 0 min 2 min 26 W/m 29,3 km/h (5 Bft) 97,87 %
02.02.2018 10:10 2,9 C 2,8 C 1,7 C 95 % 15 lf 1000,4 hPa 0,0 l/m 0 min 2 min 30 W/m 22,5 km/h (4 Bft) 95,65 %
02.02.2018 10:12 2,9 C 2,8 C 1,7 C 95 % 15 lf 1000,4 hPa 0,0 l/m 0 min 2 min 42 W/m 31,5 km/h (5 Bft) 95,74 %
02.02.2018 10:14 3,0 C 2,8 C 1,7 C 95 % 15 lf 1000,4 hPa 0,0 l/m 0 min 0 min 40 W/m 27,0 km/h (4 Bft) 97,87 %
02.02.2018 10:16 3,0 C 2,8 C 2,2 C 95 % 15 lf 1000,4 hPa 0,0 l/m 0 min 2 min 47 W/m 22,5 km/h (4 Bft) 97,87 %
02.02.2018 10:18 3,0 C 2,8 C 2,2 C 95 % 15 lf 1000,4 hPa 0,0 l/m 0 min 2 min 63 W/m 31,5 km/h (5 Bft) 95,74 %
02.02.2018 10:20 3,0 C 2,8 C 2,2 C 96 % 15 lf 1000,5 hPa 0,0 l/m 0 min 2 min 76 W/m 24,8 km/h (4 Bft) 95,74 %
02.02.2018 10:22 3,0 C 2,8 C 2,2 C 96 % 15 lf 1000,5 hPa 0,0 l/m 0 min 2 min 69 W/m 22,5 km/h (4 Bft) 97,83 %
02.02.2018 10:24 3,0 C 2,8 C 2,2 C 96 % 15 lf 1000,5 hPa 0,0 l/m 0 min 2 min 42 W/m 27,0 km/h (4 Bft) 100,00 %
02.02.2018 10:26 3,1 C 2,8 C 2,2 C 96 % 15 lf 1000,5 hPa 0,0 l/m 0 min 2 min 43 W/m 20,3 km/h (4 Bft) 97,87 %
02.02.2018 10:28 3,1 C 2,8 C 2,2 C 96 % 15 lf 1000,5 hPa 0,0 l/m 0 min 2 min 39 W/m 24,8 km/h (4 Bft) 97,87 %
02.02.2018 10:30 3,1 C 2,8 C 2,2 C 96 % 15 lf 1000,5 hPa 0,0 l/m 0 min 2 min 37 W/m 20,3 km/h (4 Bft) 97,87 %
02.02.2018 10:32 3,1 C 2,8 C 2,2 C 96 % 15 lf 1000,5 hPa 0,0 l/m 0 min 2 min 38 W/m 29,3 km/h (5 Bft) 97,87 %
02.02.2018 10:34 3,1 C 2,8 C 2,2 C 96 % 15 lf 1000,6 hPa 0,0 l/m 0 min 2 min 53 W/m 20,3 km/h (4 Bft) 95,65 %
02.02.2018 10:36 3,1 C 3,3 C 2,2 C 96 % 15 lf 1000,6 hPa 0,0 l/m 0 min 2 min 56 W/m 13,5 km/h (3 Bft) 97,87 %
02.02.2018 10:38 3,1 C 2,8 C 2,2 C 96 % 15 lf 1000,7 hPa 0,2 l/m 0 min 2 min 45 W/m 27,0 km/h (4 Bft) 95,74 %
02.02.2018 10:40 3,1 C 2,8 C 2,2 C 96 % 15 lf 1000,7 hPa 0,0 l/m 0 min 2 min 51 W/m 22,5 km/h (4 Bft) 97,87 %
02.02.2018 10:42 3,2 C 3,3 C 2,2 C 96 % 15 lf 1000,7 hPa 0,0 l/m 0 min 2 min 64 W/m 24,8 km/h (4 Bft) 95,74 %
02.02.2018 10:44 3,2 C 3,3 C 2,2 C 96 % 15 lf 1000,7 hPa 0,0 l/m 0 min 2 min 63 W/m 20,3 km/h (4 Bft) 97,83 %
02.02.2018 10:46 3,2 C 3,3 C 2,2 C 96 % 15 lf 1000,7 hPa 0,0 l/m 0 min 0 min 62 W/m 20,3 km/h (4 Bft) 95,74 %
02.02.2018 10:48 3,2 C 3,3 C 2,2 C 96 % 15 lf 1000,7 hPa 0,0 l/m 0 min 2 min 69 W/m 22,5 km/h (4 Bft) 95,74 %
02.02.2018 10:50 3,2 C 3,3 C 2,2 C 96 % 15 lf 1000,7 hPa 0,0 l/m 0 min 2 min 71 W/m 33,8 km/h (5 Bft) 97,87 %
02.02.2018 10:52 3,2 C 3,3 C 2,2 C 96 % 15 lf 1000,8 hPa 0,0 l/m 0 min 2 min 78 W/m 27,0 km/h (4 Bft) 95,74 %
02.02.2018 10:54 3,3 C 3,3 C 2,8 C 96 % 15 lf 1000,8 hPa 0,0 l/m 0 min 2 min 69 W/m 24,8 km/h (4 Bft) 95,74 %
02.02.2018 10:56 3,3 C 3,3 C 2,8 C 96 % 15 lf 1000,8 hPa 0,0 l/m 0 min 2 min 56 W/m 18,0 km/h (3 Bft) 95,65 %
02.02.2018 10:58 3,3 C 3,3 C 2,8 C 96 % 15 lf 1000,9 hPa 0,0 l/m 0 min 0 min 45 W/m 15,8 km/h (3 Bft) 95,74 %
02.02.2018 11:00 3,3 C 3,3 C 2,8 C 96 % 15 lf 1001,0 hPa 0,0 l/m 0 min 0 min 48 W/m 18,0 km/h (3 Bft) 91,49 %
02.02.2018 11:02 3,4 C 3,3 C 2,8 C 96 % 15 lf 1001,0 hPa 0,0 l/m 0 min 2 min 37 W/m 13,5 km/h (3 Bft) 97,87 %
02.02.2018 11:04 3,4 C 3,3 C 2,8 C 96 % 15 lf 1001,0 hPa 0,0 l/m 0 min 2 min 46 W/m 22,5 km/h (4 Bft) 95,74 %
02.02.2018 11:08 3,4 C 3,3 C 2,8 C 96 % 15 lf 1001,0 hPa 0,0 l/m 0 min 4 min 59 W/m 15,8 km/h (3 Bft) 95,70 %
02.02.2018 11:10 3,4 C 3,3 C 2,8 C 96 % 15 lf 1001,0 hPa 0,0 l/m 0 min 2 min 57 W/m 18,0 km/h (3 Bft) 95,74 %
02.02.2018 11:12 3,5 C 3,3 C 2,8 C 96 % 15 lf 1001,0 hPa 0,0 l/m 0 min 2 min 57 W/m 18,0 km/h (3 Bft) 95,45 %
02.02.2018 11:14 3,6 C 3,3 C 2,8 C 97 % 15 lf 1001,0 hPa 0,0 l/m 0 min 2 min 60 W/m 20,3 km/h (4 Bft) 93,62 %
02.02.2018 11:16 3,6 C 3,3 C 2,8 C 96 % 15 lf 1001,0 hPa 0,0 l/m 0 min 0 min 64 W/m 20,3 km/h (4 Bft) 95,74 %
02.02.2018 11:18 3,6 C 3,9 C 2,8 C 96 % 15 lf 1001,1 hPa 0,0 l/m 0 min 2 min 76 W/m 22,5 km/h (4 Bft) 93,62 %
02.02.2018 11:20 3,6 C 3,9 C 2,8 C 96 % 15 lf 1001,2 hPa 0,0 l/m 0 min 2 min 86 W/m 20,3 km/h (4 Bft) 94,83 %
02.02.2018 11:22 3,7 C 3,9 C 2,8 C 96 % 15 lf 1001,2 hPa 0,0 l/m 0 min 2 min 80 W/m 15,8 km/h (3 Bft) 94,29 %
02.02.2018 11:24 3,7 C 3,9 C 2,8 C 96 % 15 lf 1001,2 hPa 0,0 l/m 0 min 2 min 70 W/m 20,3 km/h (4 Bft) 95,74 %
02.02.2018 11:26 3,7 C 3,9 C 2,8 C 97 % 15 lf 1001,1 hPa 0,2 l/m 0 min 2 min 62 W/m 15,8 km/h (3 Bft) 93,62 %
02.02.2018 11:28 3,7 C 3,9 C 2,8 C 97 % 15 lf 1001,2 hPa 0,0 l/m 0 min 2 min 55 W/m 18,0 km/h (3 Bft) 95,74 %
02.02.2018 11:30 3,7 C 3,9 C 2,8 C 97 % 15 lf 1001,2 hPa 0,0 l/m 0 min 0 min 53 W/m 15,8 km/h (3 Bft) 97,87 %
02.02.2018 11:32 3,8 C 3,9 C 2,8 C 97 % 15 lf 1001,2 hPa 0,0 l/m 0 min 0 min 53 W/m 18,0 km/h (3 Bft) 100,00 %
02.02.2018 11:34 3,8 C 3,9 C 2,8 C 97 % 15 lf 1001,2 hPa 0,0 l/m 0 min 0 min 47 W/m 20,3 km/h (4 Bft) 95,74 %
02.02.2018 11:38 3,8 C 3,9 C 2,8 C 97 % 15 lf 1001,2 hPa 0,0 l/m 0 min 4 min 40 W/m 20,3 km/h (4 Bft) 97,89 %
02.02.2018 11:40 3,8 C 3,3 C 2,8 C 97 % 15 lf 1001,2 hPa 0,0 l/m 0 min 2 min 42 W/m 22,5 km/h (4 Bft) 97,87 %
02.02.2018 11:42 3,8 C 3,9 C 2,8 C 97 % 15 lf 1001,3 hPa 0,0 l/m 0 min 2 min 51 W/m 18,0 km/h (3 Bft) 97,83 %
02.02.2018 11:44 3,8 C 3,9 C 2,8 C 97 % 15 lf 1001,3 hPa 0,0 l/m 0 min 0 min 62 W/m 15,8 km/h (3 Bft) 95,74 %
02.02.2018 11:46 3,8 C 3,9 C 2,8 C 97 % 15 lf 1001,3 hPa 0,0 l/m 0 min 0 min 69 W/m 18,0 km/h (3 Bft) 95,74 %
02.02.2018 11:48 3,8 C 3,9 C 3,3 C 97 % 15 lf 1001,3 hPa 0,0 l/m 0 min 0 min 88 W/m 11,3 km/h (2 Bft) 95,74 %
02.02.2018 11:50 3,9 C 4,4 C 3,3 C 97 % 15 lf 1001,4 hPa 0,0 l/m 0 min 0 min 107 W/m 13,5 km/h (3 Bft) 96,61 %
02.02.2018 11:52 3,9 C 4,4 C 3,3 C 97 % 15 lf 1001,3 hPa 0,0 l/m 0 min 2 min 114 W/m 18,0 km/h (3 Bft) 97,22 %
02.02.2018 11:54 3,9 C 4,4 C 3,9 C 97 % 15 lf 1001,3 hPa 0,0 l/m 0 min 0 min 119 W/m 18,0 km/h (3 Bft) 97,83 %
02.02.2018 11:56 4,0 C 4,4 C 3,9 C 97 % 15 lf 1001,4 hPa 0,0 l/m 0 min 0 min 133 W/m 13,5 km/h (3 Bft) 97,87 %
02.02.2018 11:58 4,1 C 4,4 C 3,9 C 97 % 15 lf 1001,3 hPa 0,0 l/m 0 min 2 min 145 W/m 22,5 km/h (4 Bft) 95,74 %
02.02.2018 12:00 4,1 C 5,0 C 3,9 C 97 % 15 lf 1001,4 hPa 0,0 l/m 0 min 0 min 149 W/m 11,3 km/h (2 Bft) 97,87 %
02.02.2018 12:02 4,2 C 5,0 C 4,4 C 97 % 15 lf 1001,4 hPa 0,0 l/m 0 min 0 min 143 W/m 22,5 km/h (4 Bft) 95,74 %
02.02.2018 12:04 4,2 C 5,0 C 4,4 C 97 % 15 lf 1001,4 hPa 0,0 l/m 0 min 0 min 142 W/m 18,0 km/h (3 Bft) 97,96 %
02.02.2018 12:08 4,4 C 5,0 C 4,4 C 97 % 15 lf 1001,5 hPa 0,0 l/m 0 min 0 min 145 W/m 22,5 km/h (4 Bft) 96,63 %
02.02.2018 12:10 4,4 C 5,0 C 4,4 C 97 % 15 lf 1001,5 hPa 0,0 l/m 0 min 0 min 142 W/m 18,0 km/h (3 Bft) 95,74 %
02.02.2018 12:12 4,4 C 5,0 C 3,9 C 97 % 15 lf 1001,5 hPa 0,0 l/m 0 min 2 min 124 W/m 22,5 km/h (4 Bft) 97,87 %
02.02.2018 12:14 4,4 C 5,0 C 3,9 C 97 % 15 lf 1001,5 hPa 0,0 l/m 0 min 0 min 97 W/m 15,8 km/h (3 Bft) 97,87 %
02.02.2018 12:16 4,5 C 5,0 C 3,9 C 97 % 15 lf 1001,5 hPa 0,0 l/m 0 min 0 min 89 W/m 20,3 km/h (4 Bft) 93,62 %
02.02.2018 12:18 4,5 C 5,0 C 3,9 C 97 % 15 lf 1001,5 hPa 0,0 l/m 0 min 0 min 97 W/m 13,5 km/h (3 Bft) 93,48 %
02.02.2018 12:20 4,5 C 5,0 C 3,9 C 97 % 15 lf 1001,5 hPa 0,0 l/m 0 min 0 min 110 W/m 18,0 km/h (3 Bft) 95,08 %
02.02.2018 12:22 4,5 C 5,0 C 3,9 C 97 % 15 lf 1001,5 hPa 0,0 l/m 0 min 2 min 119 W/m 20,3 km/h (4 Bft) 94,29 %
02.02.2018 12:24 4,5 C 5,0 C 3,9 C 97 % 15 lf 1001,5 hPa 0,0 l/m 0 min 0 min 135 W/m 20,3 km/h (4 Bft) 95,74 %
02.02.2018 12:26 4,5 C 6,1 C 3,9 C 97 % 15 lf 1001,5 hPa 0,0 l/m 0 min 0 min 194 W/m 18,0 km/h (3 Bft) 95,74 %
02.02.2018 12:28 4,6 C 6,7 C 4,4 C 97 % 15 lf 1001,5 hPa 0,0 l/m 2 min 0 min 250 W/m 24,8 km/h (4 Bft) 95,65 %
02.02.2018 12:30 4,6 C 7,8 C 4,4 C 97 % 15 lf 1001,5 hPa 0,0 l/m 2 min 0 min 267 W/m 18,0 km/h (3 Bft) 95,74 %
02.02.2018 12:32 4,7 C 8,3 C 4,4 C 97 % 15 lf 1001,4 hPa 0,0 l/m 2 min 0 min 334 W/m 15,8 km/h (3 Bft) 97,87 %
02.02.2018 12:34 4,8 C 7,8 C 5,0 C 97 % 15 lf 1001,5 hPa 0,0 l/m 2 min 0 min 220 W/m 18,0 km/h (3 Bft) 93,62 %
02.02.2018 12:36 4,9 C 7,2 C 5,0 C 97 % 15 lf 1001,5 hPa 0,0 l/m 0 min 0 min 192 W/m 20,3 km/h (4 Bft) 97,87 %
02.02.2018 12:38 4,9 C 7,2 C 5,0 C 97 % 15 lf 1001,5 hPa 0,0 l/m 0 min 0 min 175 W/m 27,0 km/h (4 Bft) 95,74 %
02.02.2018 12:40 5,0 C 7,2 C 5,0 C 97 % 15 lf 1001,5 hPa 0,0 l/m 0 min 0 min 151 W/m 22,5 km/h (4 Bft) 97,87 %
02.02.2018 12:42 5,0 C 6,7 C 5,0 C 97 % 15 lf 1001,5 hPa 0,0 l/m 0 min 0 min 141 W/m 20,3 km/h (4 Bft) 97,83 %
02.02.2018 12:44 5,1 C 6,7 C 5,0 C 97 % 15 lf 1001,5 hPa 0,0 l/m 0 min 0 min 140 W/m 20,3 km/h (4 Bft) 95,74 %
02.02.2018 12:46 5,1 C 6,7 C 5,0 C 97 % 15 lf 1001,4 hPa 0,0 l/m 0 min 0 min 139 W/m 18,0 km/h (3 Bft) 95,74 %
02.02.2018 12:48 5,1 C 6,7 C 5,0 C 97 % 14 lf 1001,4 hPa 0,0 l/m 0 min 0 min 138 W/m 11,3 km/h (2 Bft) 97,87 %
02.02.2018 12:50 5,2 C 6,7 C 5,0 C 97 % 14 lf 1001,5 hPa 0,0 l/m 0 min 0 min 137 W/m 18,0 km/h (3 Bft) 96,61 %
02.02.2018 12:52 5,2 C 6,7 C 5,0 C 97 % 12 lf 1001,5 hPa 0,0 l/m 0 min 0 min 141 W/m 13,5 km/h (3 Bft) 94,29 %
02.02.2018 12:54 5,2 C 7,2 C 5,0 C 97 % 12 lf 1001,4 hPa 0,0 l/m 0 min 0 min 162 W/m 15,8 km/h (3 Bft) 95,74 %
02.02.2018 12:56 5,2 C 7,8 C 5,0 C 97 % 10 lf 1001,4 hPa 0,0 l/m 0 min 0 min 178 W/m 15,8 km/h (3 Bft) 93,62 %
02.02.2018 12:58 5,2 C 7,8 C 5,0 C 97 % 9 lf 1001,5 hPa 0,0 l/m 0 min 0 min 186 W/m 11,3 km/h (2 Bft) 97,87 %
02.02.2018 13:00 5,3 C 7,8 C 5,0 C 97 % 7 lf 1001,5 hPa 0,0 l/m 0 min 0 min 194 W/m 13,5 km/h (3 Bft) 95,74 %
02.02.2018 13:02 5,3 C 9,4 C 5,6 C 97 % 5 lf 1001,5 hPa 0,0 l/m 0 min 0 min 203 W/m 18,0 km/h (3 Bft) 91,49 %
02.02.2018 13:04 5,4 C 10,6 C 5,6 C 97 % 4 lf 1001,4 hPa 0,0 l/m 2 min 0 min 321 W/m 11,3 km/h (2 Bft) 95,65 %
02.02.2018 13:08 5,6 C 10,6 C 6,1 C 97 % 2 lf 1001,5 hPa 0,0 l/m 4 min 0 min 295 W/m 15,8 km/h (3 Bft) 97,89 %
02.02.2018 13:10 5,7 C 10,6 C 5,6 C 97 % 1 lf 1001,4 hPa 0,0 l/m 2 min 0 min 396 W/m 18,0 km/h (3 Bft) 97,87 %
02.02.2018 13:12 5,7 C 10,0 C 5,6 C 97 % 0 lf 1001,5 hPa 0,0 l/m 2 min 0 min 234 W/m 20,3 km/h (4 Bft) 97,87 %
02.02.2018 13:14 5,8 C 9,4 C 5,6 C 97 % 0 lf 1001,5 hPa 0,0 l/m 2 min 0 min 225 W/m 13,5 km/h (3 Bft) 93,62 %
02.02.2018 13:16 5,8 C 9,4 C 5,6 C 97 % 0 lf 1001,5 hPa 0,0 l/m 0 min 0 min 188 W/m 11,3 km/h (2 Bft) 95,74 %
02.02.2018 13:18 5,8 C 8,9 C 5,6 C 97 % 0 lf 1001,5 hPa 0,0 l/m 0 min 0 min 183 W/m 15,8 km/h (3 Bft) 97,83 %
02.02.2018 13:20 5,9 C 8,9 C 5,6 C 97 % 0 lf 1001,5 hPa 0,0 l/m 0 min 0 min 166 W/m 13,5 km/h (3 Bft) 93,62 %
02.02.2018 13:22 5,9 C 8,9 C 5,6 C 97 % 0 lf 1001,5 hPa 0,0 l/m 0 min 0 min 154 W/m 15,8 km/h (3 Bft) 97,87 %
02.02.2018 13:24 5,9 C 8,9 C 5,6 C 97 % 0 lf 1001,5 hPa 0,0 l/m 0 min 0 min 172 W/m 11,3 km/h (2 Bft) 97,87 %
02.02.2018 13:26 5,9 C 8,3 C 5,0 C 96 % 0 lf 1001,5 hPa 0,0 l/m 0 min 0 min 124 W/m 13,5 km/h (3 Bft) 95,74 %
02.02.2018 13:28 5,9 C 7,8 C 5,0 C 96 % 0 lf 1001,5 hPa 0,0 l/m 0 min 0 min 149 W/m 13,5 km/h (3 Bft) 95,65 %
02.02.2018 13:30 5,9 C 7,8 C 5,0 C 96 % 0 lf 1001,5 hPa 0,0 l/m 0 min 0 min 153 W/m 20,3 km/h (4 Bft) 97,87 %
02.02.2018 13:32 5,9 C 7,8 C 5,6 C 96 % 0 lf 1001,5 hPa 0,0 l/m 0 min 0 min 133 W/m 11,3 km/h (2 Bft) 95,74 %
02.02.2018 13:34 5,9 C 7,8 C 5,0 C 96 % 0 lf 1001,5 hPa 0,0 l/m 0 min 0 min 137 W/m 15,8 km/h (3 Bft) 97,87 %
02.02.2018 13:36 6,0 C 7,2 C 5,0 C 96 % 0 lf 1001,6 hPa 0,0 l/m 0 min 0 min 131 W/m 11,3 km/h (2 Bft) 89,36 %
02.02.2018 13:38 6,0 C 7,2 C 5,6 C 96 % 0 lf 1001,6 hPa 0,0 l/m 0 min 0 min 132 W/m 15,8 km/h (3 Bft) 100,00 %
02.02.2018 13:40 6,0 C 7,8 C 5,0 C 96 % 0 lf 1001,6 hPa 0,0 l/m 0 min 0 min 144 W/m 13,5 km/h (3 Bft) 97,83 %
02.02.2018 13:42 6,0 C 7,8 C 5,0 C 95 % 0 lf 1001,6 hPa 0,0 l/m 0 min 0 min 145 W/m 13,5 km/h (3 Bft) 100,00 %
02.02.2018 13:44 6,1 C 7,8 C 5,0 C 95 % 0 lf 1001,6 hPa 0,0 l/m 0 min 0 min 153 W/m 13,5 km/h (3 Bft) 97,87 %
02.02.2018 13:46 6,1 C 7,8 C 5,0 C 95 % 0 lf 1001,6 hPa 0,0 l/m 0 min 0 min 159 W/m 11,3 km/h (2 Bft) 100,00 %
02.02.2018 13:48 6,1 C 7,8 C 5,6 C 95 % 0 lf 1001,6 hPa 0,0 l/m 0 min 0 min 157 W/m 9,0 km/h (2 Bft) 97,87 %
02.02.2018 13:50 6,1 C 7,8 C 5,6 C 95 % 0 lf 1001,6 hPa 0,0 l/m 0 min 0 min 166 W/m 15,8 km/h (3 Bft) 97,87 %
02.02.2018 13:52 6,1 C 7,8 C 5,0 C 95 % 0 lf 1001,7 hPa 0,0 l/m 0 min 0 min 162 W/m 15,8 km/h (3 Bft) 97,83 %
02.02.2018 13:54 6,1 C 8,3 C 5,6 C 95 % 0 lf 1001,7 hPa 0,0 l/m 0 min 0 min 153 W/m 15,8 km/h (3 Bft) 97,87 %
02.02.2018 13:56 6,1 C 7,8 C 5,0 C 94 % 0 lf 1001,7 hPa 0,0 l/m 0 min 0 min 148 W/m 15,8 km/h (3 Bft) 97,87 %
02.02.2018 13:58 6,1 C 7,8 C 5,0 C 94 % 0 lf 1001,7 hPa 0,0 l/m 0 min 0 min 151 W/m 11,3 km/h (2 Bft) 97,87 %
02.02.2018 14:00 6,1 C 7,8 C 5,0 C 94 % 0 lf 1001,7 hPa 0,0 l/m 0 min 0 min 155 W/m 13,5 km/h (3 Bft) 95,74 %
02.02.2018 14:02 6,1 C 7,8 C 5,0 C 94 % 0 lf 1001,7 hPa 0,0 l/m 0 min 0 min 146 W/m 6,8 km/h (2 Bft) 97,87 %
02.02.2018 14:04 6,1 C 7,8 C 5,0 C 94 % 0 lf 1001,8 hPa 0,0 l/m 0 min 0 min 143 W/m 13,5 km/h (3 Bft) 97,83 %
02.02.2018 14:06 6,1 C 7,8 C 5,0 C 94 % 0 lf 1001,8 hPa 0,0 l/m 0 min 0 min 148 W/m 13,5 km/h (3 Bft) 97,87 %
02.02.2018 14:08 6,1 C 7,2 C 5,0 C 93 % 0 lf 1001,8 hPa 0,0 l/m 0 min 0 min 145 W/m 18,0 km/h (3 Bft) 97,87 %
02.02.2018 14:10 6,1 C 7,2 C 5,0 C 93 % 0 lf 1001,8 hPa 0,0 l/m 0 min 0 min 134 W/m 15,8 km/h (3 Bft) 97,87 %
02.02.2018 14:12 6,1 C 7,2 C 5,0 C 93 % 0 lf 1001,8 hPa 0,0 l/m 0 min 0 min 122 W/m 13,5 km/h (3 Bft) 95,74 %
02.02.2018 14:14 6,1 C 7,2 C 5,0 C 93 % 0 lf 1001,8 hPa 0,0 l/m 0 min 0 min 108 W/m 15,8 km/h (3 Bft) 97,87 %
02.02.2018 14:16 6,1 C 7,2 C 5,0 C 92 % 0 lf 1001,8 hPa 0,0 l/m 0 min 0 min 92 W/m 11,3 km/h (2 Bft) 95,65 %
02.02.2018 14:18 6,1 C 6,7 C 5,0 C 92 % 0 lf 1001,8 hPa 0,0 l/m 0 min 0 min 83 W/m 9,0 km/h (2 Bft) 97,87 %
02.02.2018 14:20 6,1 C 6,7 C 5,0 C 92 % 0 lf 1001,9 hPa 0,0 l/m 0 min 0 min 82 W/m 13,5 km/h (3 Bft) 97,87 %
02.02.2018 14:22 6,1 C 6,7 C 5,0 C 92 % 0 lf 1001,9 hPa 0,0 l/m 0 min 0 min 81 W/m 11,3 km/h (2 Bft) 95,74 %
02.02.2018 14:24 6,1 C 6,7 C 4,4 C 92 % 0 lf 1001,9 hPa 0,0 l/m 0 min 0 min 67 W/m 18,0 km/h (3 Bft) 97,87 %
02.02.2018 14:26 6,1 C 6,7 C 4,4 C 92 % 0 lf 1001,9 hPa 0,0 l/m 0 min 0 min 53 W/m 20,3 km/h (4 Bft) 93,48 %
02.02.2018 14:28 6,0 C 6,1 C 4,4 C 91 % 0 lf 1001,9 hPa 0,0 l/m 0 min 0 min 50 W/m 27,0 km/h (4 Bft) 91,49 %
02.02.2018 14:30 5,9 C 5,6 C 3,9 C 91 % 0 lf 1001,9 hPa 0,0 l/m 0 min 0 min 70 W/m 24,8 km/h (4 Bft) 95,74 %
02.02.2018 14:32 5,8 C 5,6 C 3,9 C 91 % 0 lf 1002,0 hPa 0,0 l/m 0 min 0 min 92 W/m 20,3 km/h (4 Bft) 95,74 %
02.02.2018 14:34 5,7 C 5,6 C 3,9 C 90 % 0 lf 1002,0 hPa 0,0 l/m 0 min 0 min 100 W/m 22,5 km/h (4 Bft) 95,74 %
02.02.2018 14:36 5,7 C 5,6 C 3,9 C 90 % 0 lf 1002,0 hPa 0,0 l/m 0 min 0 min 115 W/m 18,0 km/h (3 Bft) 95,74 %
02.02.2018 14:38 5,6 C 5,6 C 4,4 C 90 % 0 lf 1002,0 hPa 0,0 l/m 0 min 0 min 138 W/m 18,0 km/h (3 Bft) 95,65 %
02.02.2018 14:40 5,6 C 6,1 C 4,4 C 90 % 0 lf 1002,0 hPa 0,0 l/m 0 min 0 min 154 W/m 13,5 km/h (3 Bft) 95,74 %
02.02.2018 14:42 5,6 C 6,1 C 4,4 C 90 % 0 lf 1002,1 hPa 0,0 l/m 0 min 0 min 139 W/m 18,0 km/h (3 Bft) 95,74 %
02.02.2018 14:44 5,5 C 6,1 C 4,4 C 90 % 0 lf 1002,1 hPa 0,0 l/m 0 min 0 min 104 W/m 13,5 km/h (3 Bft) 95,74 %
02.02.2018 14:46 5,5 C 6,1 C 4,4 C 90 % 0 lf 1002,0 hPa 0,0 l/m 0 min 0 min 101 W/m 15,8 km/h (3 Bft) 97,87 %
02.02.2018 14:48 5,4 C 6,1 C 4,4 C 90 % 0 lf 1002,1 hPa 0,0 l/m 0 min 0 min 116 W/m 13,5 km/h (3 Bft) 97,87 %
02.02.2018 14:50 5,4 C 6,1 C 4,4 C 90 % 0 lf 1002,1 hPa 0,0 l/m 0 min 0 min 131 W/m 15,8 km/h (3 Bft) 93,48 %
02.02.2018 14:52 5,4 C 6,1 C 4,4 C 91 % 0 lf 1002,1 hPa 0,0 l/m 0 min 0 min 146 W/m 13,5 km/h (3 Bft) 95,74 %
02.02.2018 14:54 5,4 C 6,1 C 4,4 C 91 % 0 lf 1002,1 hPa 0,0 l/m 0 min 0 min 155 W/m 13,5 km/h (3 Bft) 95,74 %
02.02.2018 14:56 5,4 C 6,1 C 4,4 C 91 % 0 lf 1002,2 hPa 0,0 l/m 0 min 0 min 157 W/m 20,3 km/h (4 Bft) 97,87 %
02.02.2018 14:58 5,4 C 6,1 C 4,4 C 91 % 0 lf 1002,1 hPa 0,0 l/m 2 min 0 min 171 W/m 15,8 km/h (3 Bft) 93,62 %
02.02.2018 15:00 5,3 C 6,7 C 4,4 C 91 % 0 lf 1002,2 hPa 0,0 l/m 2 min 0 min 175 W/m 11,3 km/h (2 Bft) 95,74 %
02.02.2018 15:02 5,3 C 6,7 C 5,0 C 91 % 0 lf 1002,2 hPa 0,0 l/m 2 min 0 min 175 W/m 11,3 km/h (2 Bft) 91,30 %
02.02.2018 15:04 5,3 C 6,7 C 4,4 C 91 % 0 lf 1002,3 hPa 0,0 l/m 2 min 0 min 165 W/m 20,3 km/h (4 Bft) 97,87 %
02.02.2018 15:06 5,3 C 6,7 C 4,4 C 91 % 0 lf 1002,3 hPa 0,0 l/m 2 min 0 min 158 W/m 15,8 km/h (3 Bft) 97,87 %
02.02.2018 15:08 5,3 C 6,7 C 4,4 C 91 % 0 lf 1002,2 hPa 0,0 l/m 2 min 0 min 156 W/m 15,8 km/h (3 Bft) 91,49 %
02.02.2018 15:10 5,3 C 6,7 C 4,4 C 91 % 0 lf 1002,2 hPa 0,0 l/m 2 min 0 min 154 W/m 15,8 km/h (3 Bft) 93,62 %
02.02.2018 15:12 5,3 C 6,1 C 4,4 C 91 % 0 lf 1002,3 hPa 0,0 l/m 2 min 0 min 149 W/m 22,5 km/h (4 Bft) 95,65 %
02.02.2018 15:14 5,3 C 6,1 C 4,4 C 91 % 0 lf 1002,4 hPa 0,0 l/m 2 min 0 min 147 W/m 15,8 km/h (3 Bft) 95,74 %
02.02.2018 15:16 5,3 C 6,1 C 4,4 C 91 % 0 lf 1002,3 hPa 0,0 l/m 2 min 0 min 144 W/m 18,0 km/h (3 Bft) 95,74 %
02.02.2018 15:18 5,3 C 6,7 C 4,4 C 91 % 0 lf 1002,4 hPa 0,0 l/m 0 min 0 min 139 W/m 20,3 km/h (4 Bft) 97,87 %
02.02.2018 15:20 5,3 C 6,1 C 4,4 C 91 % 0 lf 1002,5 hPa 0,0 l/m 0 min 0 min 130 W/m 13,5 km/h (3 Bft) 95,74 %
02.02.2018 15:22 5,3 C 6,1 C 4,4 C 91 % 0 lf 1002,6 hPa 0,0 l/m 0 min 0 min 125 W/m 20,3 km/h (4 Bft) 93,62 %
02.02.2018 15:24 5,3 C 6,1 C 4,4 C 91 % 0 lf 1002,6 hPa 0,0 l/m 0 min 0 min 126 W/m 20,3 km/h (4 Bft) 95,65 %
02.02.2018 15:26 5,2 C 6,1 C 3,9 C 91 % 0 lf 1002,5 hPa 0,0 l/m 0 min 0 min 122 W/m 20,3 km/h (4 Bft) 93,62 %
02.02.2018 15:28 5,2 C 6,1 C 3,9 C 91 % 0 lf 1002,5 hPa 0,0 l/m 0 min 0 min 113 W/m 20,3 km/h (4 Bft) 97,87 %
02.02.2018 15:30 5,2 C 6,1 C 3,9 C 91 % 0 lf 1002,6 hPa 0,0 l/m 0 min 0 min 98 W/m 15,8 km/h (3 Bft) 93,62 %
02.02.2018 15:32 5,2 C 6,1 C 3,9 C 91 % 0 lf 1002,6 hPa 0,0 l/m 0 min 0 min 93 W/m 13,5 km/h (3 Bft) 95,74 %
02.02.2018 15:34 5,2 C 5,6 C 3,9 C 91 % 0 lf 1002,7 hPa 0,0 l/m 0 min 0 min 91 W/m 18,0 km/h (3 Bft) 95,74 %
02.02.2018 15:36 5,2 C 5,6 C 3,9 C 91 % 0 lf 1002,7 hPa 0,0 l/m 0 min 0 min 89 W/m 13,5 km/h (3 Bft) 95,65 %
02.02.2018 15:38 5,1 C 5,6 C 3,3 C 91 % 0 lf 1002,7 hPa 0,0 l/m 0 min 0 min 82 W/m 18,0 km/h (3 Bft) 95,74 %
02.02.2018 15:40 5,1 C 5,6 C 3,3 C 91 % 0 lf 1002,7 hPa 0,0 l/m 0 min 0 min 74 W/m 22,5 km/h (4 Bft) 95,74 %
02.02.2018 15:42 5,1 C 5,6 C 3,3 C 91 % 0 lf 1002,7 hPa 0,0 l/m 0 min 0 min 64 W/m 18,0 km/h (3 Bft) 93,62 %
02.02.2018 15:44 5,1 C 5,6 C 3,3 C 91 % 0 lf 1002,8 hPa 0,0 l/m 0 min 0 min 52 W/m 13,5 km/h (3 Bft) 97,87 %
02.02.2018 15:46 5,0 C 5,0 C 3,3 C 91 % 0 lf 1002,8 hPa 0,0 l/m 0 min 0 min 45 W/m 15,8 km/h (3 Bft) 97,87 %
02.02.2018 15:48 5,0 C 5,0 C 3,3 C 91 % 0 lf 1002,8 hPa 0,0 l/m 0 min 0 min 40 W/m 11,3 km/h (2 Bft) 95,65 %
02.02.2018 15:50 5,0 C 5,0 C 3,3 C 92 % 0 lf 1003,0 hPa 0,0 l/m 0 min 0 min 39 W/m 18,0 km/h (3 Bft) 100,00 %
02.02.2018 15:52 4,9 C 5,0 C 3,3 C 92 % 0 lf 1003,0 hPa 0,0 l/m 0 min 0 min 37 W/m 15,8 km/h (3 Bft) 97,87 %
02.02.2018 15:54 4,9 C 5,0 C 3,3 C 92 % 0 lf 1003,1 hPa 0,0 l/m 0 min 0 min 33 W/m 11,3 km/h (2 Bft) 97,87 %
02.02.2018 15:56 4,9 C 5,0 C 3,3 C 92 % 0 lf 1003,1 hPa 0,0 l/m 0 min 0 min 34 W/m 13,5 km/h (3 Bft) 97,87 %
02.02.2018 15:58 4,9 C 5,0 C 3,3 C 92 % 0 lf 1003,1 hPa 0,0 l/m 0 min 0 min 31 W/m 13,5 km/h (3 Bft) 97,87 %
02.02.2018 16:00 4,9 C 5,0 C 3,3 C 92 % 0 lf 1003,1 hPa 0,0 l/m 0 min 0 min 28 W/m 9,0 km/h (2 Bft) 97,83 %
02.02.2018 16:02 4,8 C 5,0 C 3,3 C 92 % 0 lf 1003,1 hPa 0,0 l/m 0 min 0 min 26 W/m 11,3 km/h (2 Bft) 100,00 %
02.02.2018 16:04 4,8 C 4,4 C 3,3 C 92 % 0 lf 1003,1 hPa 0,0 l/m 0 min 0 min 25 W/m 15,8 km/h (3 Bft) 100,00 %
02.02.2018 16:06 4,8 C 4,4 C 3,3 C 92 % 0 lf 1003,2 hPa 0,0 l/m 0 min 0 min 24 W/m 9,0 km/h (2 Bft) 100,00 %
02.02.2018 16:08 4,8 C 4,4 C 3,3 C 92 % 0 lf 1003,1 hPa 0,0 l/m 0 min 0 min 22 W/m 6,8 km/h (2 Bft) 100,00 %
02.02.2018 16:10 4,8 C 4,4 C 3,3 C 92 % 0 lf 1003,1 hPa 0,0 l/m 0 min 0 min 23 W/m 11,3 km/h (2 Bft) 97,87 %
02.02.2018 16:12 4,8 C 4,4 C 3,3 C 92 % 0 lf 1003,1 hPa 0,0 l/m 0 min 0 min 24 W/m 13,5 km/h (3 Bft) 100,00 %
02.02.2018 16:14 4,8 C 4,4 C 3,3 C 92 % 0 lf 1003,1 hPa 0,0 l/m 0 min 0 min 25 W/m 15,8 km/h (3 Bft) 100,00 %
02.02.2018 16:16 4,7 C 4,4 C 3,3 C 92 % 0 lf 1003,2 hPa 0,0 l/m 0 min 0 min 23 W/m 18,0 km/h (3 Bft) 97,87 %
02.02.2018 16:18 4,7 C 4,4 C 3,3 C 92 % 0 lf 1003,2 hPa 0,0 l/m 0 min 0 min 26 W/m 18,0 km/h (3 Bft) 100,00 %
02.02.2018 16:20 4,7 C 4,4 C 3,3 C 92 % 0 lf 1003,4 hPa 0,0 l/m 0 min 0 min 34 W/m 20,3 km/h (4 Bft) 100,00 %
02.02.2018 16:22 4,7 C 4,4 C 3,3 C 92 % 0 lf 1003,4 hPa 0,0 l/m 0 min 0 min 31 W/m 13,5 km/h (3 Bft) 100,00 %
02.02.2018 16:24 4,6 C 4,4 C 3,3 C 92 % 0 lf 1003,4 hPa 0,0 l/m 0 min 0 min 28 W/m 15,8 km/h (3 Bft) 100,00 %
02.02.2018 16:26 4,6 C 4,4 C 3,3 C 92 % 0 lf 1003,4 hPa 0,0 l/m 0 min 0 min 28 W/m 20,3 km/h (4 Bft) 97,87 %
02.02.2018 16:28 4,6 C 4,4 C 3,3 C 92 % 0 lf 1003,4 hPa 0,0 l/m 0 min 0 min 34 W/m 20,3 km/h (4 Bft) 100,00 %
02.02.2018 16:30 4,6 C 4,4 C 3,3 C 92 % 0 lf 1003,4 hPa 0,0 l/m 0 min 0 min 42 W/m 13,5 km/h (3 Bft) 97,87 %
02.02.2018 16:32 4,6 C 4,4 C 3,3 C 92 % 0 lf 1003,4 hPa 0,0 l/m 0 min 0 min 45 W/m 9,0 km/h (2 Bft) 100,00 %
02.02.2018 16:34 4,6 C 4,4 C 3,3 C 92 % 0 lf 1003,4 hPa 0,0 l/m 0 min 0 min 46 W/m 13,5 km/h (3 Bft) 100,00 %
02.02.2018 16:36 4,6 C 4,4 C 3,3 C 93 % 0 lf 1003,4 hPa 0,0 l/m 0 min 0 min 44 W/m 15,8 km/h (3 Bft) 100,00 %
02.02.2018 16:38 4,6 C 4,4 C 3,3 C 93 % 0 lf 1003,5 hPa 0,0 l/m 0 min 0 min 38 W/m 9,0 km/h (2 Bft) 100,00 %
02.02.2018 16:40 4,5 C 4,4 C 3,3 C 93 % 0 lf 1003,5 hPa 0,0 l/m 0 min 0 min 32 W/m 11,3 km/h (2 Bft) 97,87 %
02.02.2018 16:42 4,5 C 4,4 C 2,8 C 93 % 0 lf 1003,5 hPa 0,0 l/m 0 min 0 min 28 W/m 13,5 km/h (3 Bft) 100,00 %
02.02.2018 16:44 4,5 C 4,4 C 2,8 C 93 % 0 lf 1003,5 hPa 0,0 l/m 0 min 0 min 26 W/m 11,3 km/h (2 Bft) 100,00 %
02.02.2018 16:46 4,5 C 4,4 C 2,8 C 93 % 0 lf 1003,6 hPa 0,0 l/m 0 min 0 min 23 W/m 13,5 km/h (3 Bft) 97,83 %
02.02.2018 16:48 4,5 C 4,4 C 2,8 C 93 % 0 lf 1003,6 hPa 0,0 l/m 0 min 0 min 23 W/m 13,5 km/h (3 Bft) 100,00 %
02.02.2018 16:50 4,5 C 4,4 C 2,8 C 93 % 0 lf 1003,6 hPa 0,0 l/m 0 min 0 min 25 W/m 11,3 km/h (2 Bft) 93,62 %
02.02.2018 16:52 4,5 C 4,4 C 3,3 C 93 % 0 lf 1003,6 hPa 0,0 l/m 0 min 0 min 24 W/m 11,3 km/h (2 Bft) 100,00 %
02.02.2018 16:54 4,5 C 4,4 C 3,3 C 93 % 0 lf 1003,7 hPa 0,0 l/m 0 min 0 min 21 W/m 9,0 km/h (2 Bft) 100,00 %
02.02.2018 16:56 4,5 C 4,4 C 3,3 C 93 % 0 lf 1003,7 hPa 0,0 l/m 0 min 0 min 17 W/m 13,5 km/h (3 Bft) 100,00 %
02.02.2018 16:58 4,4 C 4,4 C 3,3 C 93 % 0 lf 1003,7 hPa 0,0 l/m 0 min 0 min 15 W/m 11,3 km/h (2 Bft) 100,00 %
02.02.2018 17:00 4,5 C 4,4 C 3,3 C 93 % 0 lf 1003,8 hPa 0,0 l/m 0 min 0 min 13 W/m 15,8 km/h (3 Bft) 97,87 %
02.02.2018 17:02 4,4 C 4,4 C 3,3 C 93 % 0 lf 1003,8 hPa 0,0 l/m 0 min 0 min 10 W/m 11,3 km/h (2 Bft) 100,00 %
02.02.2018 17:04 4,4 C 4,4 C 2,8 C 93 % 0 lf 1003,8 hPa 0,0 l/m 0 min 0 min 8 W/m 13,5 km/h (3 Bft) 97,87 %
02.02.2018 17:06 4,4 C 4,4 C 2,8 C 93 % 0 lf 1003,8 hPa 0,0 l/m 0 min 0 min 7 W/m 15,8 km/h (3 Bft) 100,00 %
02.02.2018 17:08 4,4 C 4,4 C 2,8 C 93 % 0 lf 1003,8 hPa 0,0 l/m 0 min 0 min 5 W/m 11,3 km/h (2 Bft) 95,74 %
02.02.2018 17:10 4,4 C 4,4 C 2,8 C 93 % 0 lf 1003,9 hPa 0,0 l/m 0 min 0 min 5 W/m 11,3 km/h (2 Bft) 95,65 %
02.02.2018 17:12 4,4 C 4,4 C 2,8 C 93 % 0 lf 1003,9 hPa 0,0 l/m 0 min 0 min 2 W/m 18,0 km/h (3 Bft) 97,87 %
02.02.2018 17:14 4,4 C 4,4 C 2,8 C 93 % 0 lf 1003,9 hPa 0,0 l/m 0 min 0 min 0 W/m 13,5 km/h (3 Bft) 97,87 %
02.02.2018 17:16 4,4 C 4,4 C 2,8 C 93 % 0 lf 1004,0 hPa 0,0 l/m 0 min 0 min 0 W/m 13,5 km/h (3 Bft) 95,74 %
02.02.2018 17:18 4,4 C 4,4 C 2,8 C 93 % 0 lf 1003,9 hPa 0,0 l/m 0 min 0 min 0 W/m 15,8 km/h (3 Bft) 97,87 %
02.02.2018 17:20 4,4 C 4,4 C 2,8 C 94 % 0 lf 1004,0 hPa 0,0 l/m 0 min 0 min 0 W/m 15,8 km/h (3 Bft) 95,74 %
02.02.2018 17:22 4,4 C 4,4 C 2,8 C 94 % 0 lf 1004,0 hPa 0,0 l/m 0 min 0 min 0 W/m 15,8 km/h (3 Bft) 93,48 %
02.02.2018 17:24 4,4 C 3,9 C 2,8 C 94 % 0 lf 1004,0 hPa 0,0 l/m 0 min 0 min 0 W/m 13,5 km/h (3 Bft) 91,49 %
02.02.2018 17:26 4,4 C 3,9 C 2,8 C 94 % 0 lf 1004,1 hPa 0,0 l/m 0 min 0 min 0 W/m 13,5 km/h (3 Bft) 93,62 %
02.02.2018 17:28 4,4 C 3,9 C 2,8 C 94 % 0 lf 1004,2 hPa 0,0 l/m 0 min 0 min 0 W/m 13,5 km/h (3 Bft) 89,36 %
02.02.2018 17:30 4,4 C 3,9 C 2,8 C 94 % 0 lf 1004,2 hPa 0,0 l/m 0 min 0 min 0 W/m 18,0 km/h (3 Bft) 93,62 %
02.02.2018 17:32 4,4 C 3,9 C 2,8 C 94 % 0 lf 1004,2 hPa 0,0 l/m 0 min 0 min 0 W/m 13,5 km/h (3 Bft) 93,62 %
02.02.2018 17:34 4,3 C 3,9 C 2,8 C 94 % 0 lf 1004,2 hPa 0,0 l/m 0 min 0 min 0 W/m 20,3 km/h (4 Bft) 93,48 %
02.02.2018 17:36 4,3 C 3,9 C 2,8 C 94 % 0 lf 1004,3 hPa 0,0 l/m 0 min 0 min 0 W/m 18,0 km/h (3 Bft) 93,62 %
02.02.2018 17:38 4,3 C 3,9 C 2,8 C 94 % 0 lf 1004,4 hPa 0,0 l/m 0 min 0 min 0 W/m 13,5 km/h (3 Bft) 89,36 %
02.02.2018 17:40 4,3 C 3,9 C 2,8 C 94 % 0 lf 1004,4 hPa 0,0 l/m 0 min 0 min 0 W/m 13,5 km/h (3 Bft) 95,74 %
02.02.2018 17:42 4,3 C 3,9 C 2,8 C 94 % 0 lf 1004,3 hPa 0,0 l/m 0 min 0 min 0 W/m 11,3 km/h (2 Bft) 95,74 %
02.02.2018 17:44 4,3 C 3,9 C 2,8 C 94 % 0 lf 1004,4 hPa 0,0 l/m 0 min 0 min 0 W/m 11,3 km/h (2 Bft) 95,74 %
02.02.2018 17:46 4,3 C 3,9 C 2,8 C 94 % 0 lf 1004,4 hPa 0,0 l/m 0 min 0 min 0 W/m 11,3 km/h (2 Bft) 93,48 %
02.02.2018 17:48 4,3 C 3,9 C 2,8 C 94 % 0 lf 1004,4 hPa 0,0 l/m 0 min 0 min 0 W/m 15,8 km/h (3 Bft) 91,49 %
02.02.2018 17:50 4,3 C 3,9 C 2,8 C 94 % 0 lf 1004,5 hPa 0,0 l/m 0 min 0 min 0 W/m 9,0 km/h (2 Bft) 93,62 %
02.02.2018 17:52 4,3 C 3,9 C 2,8 C 94 % 0 lf 1004,4 hPa 0,0 l/m 0 min 0 min 0 W/m 11,3 km/h (2 Bft) 93,62 %
02.02.2018 17:54 4,3 C 3,9 C 2,8 C 94 % 0 lf 1004,4 hPa 0,0 l/m 0 min 0 min 0 W/m 15,8 km/h (3 Bft) 91,49 %
02.02.2018 17:56 4,3 C 3,9 C 2,8 C 94 % 0 lf 1004,5 hPa 0,0 l/m 0 min 0 min 0 W/m 11,3 km/h (2 Bft) 91,30 %
02.02.2018 17:58 4,2 C 3,9 C 2,8 C 94 % 0 lf 1004,4 hPa 0,0 l/m 0 min 0 min 0 W/m 13,5 km/h (3 Bft) 87,23 %
02.02.2018 18:00 4,2 C 3,9 C 2,8 C 94 % 0 lf 1004,5 hPa 0,0 l/m 0 min 0 min 0 W/m 13,5 km/h (3 Bft) 91,49 %
02.02.2018 18:02 4,2 C 3,9 C 2,8 C 94 % 0 lf 1004,6 hPa 0,0 l/m 0 min 0 min 0 W/m 9,0 km/h (2 Bft) 93,62 %
02.02.2018 18:04 4,2 C 3,9 C 2,8 C 94 % 0 lf 1004,6 hPa 0,0 l/m 0 min 0 min 0 W/m 9,0 km/h (2 Bft) 91,49 %
02.02.2018 18:06 4,2 C 3,9 C 2,8 C 94 % 0 lf 1004,6 hPa 0,0 l/m 0 min 0 min 0 W/m 9,0 km/h (2 Bft) 91,49 %
02.02.2018 18:08 4,2 C 3,9 C 2,8 C 94 % 0 lf 1004,6 hPa 0,0 l/m 0 min 0 min 0 W/m 9,0 km/h (2 Bft) 93,48 %
02.02.2018 18:10 4,2 C 3,9 C 2,8 C 94 % 0 lf 1004,6 hPa 0,0 l/m 0 min 0 min 0 W/m 11,3 km/h (2 Bft) 93,62 %
02.02.2018 18:12 4,2 C 3,9 C 2,8 C 94 % 0 lf 1004,6 hPa 0,0 l/m 0 min 0 min 0 W/m 11,3 km/h (2 Bft) 93,62 %
02.02.2018 18:14 4,2 C 3,9 C 2,8 C 95 % 0 lf 1004,6 hPa 0,0 l/m 0 min 0 min 0 W/m 11,3 km/h (2 Bft) 95,74 %
02.02.2018 18:16 4,2 C 3,9 C 2,8 C 94 % 0 lf 1004,7 hPa 0,0 l/m 0 min 0 min 0 W/m 6,8 km/h (2 Bft) 93,62 %
02.02.2018 18:18 4,2 C 3,9 C 2,8 C 94 % 0 lf 1004,7 hPa 0,0 l/m 0 min 0 min 0 W/m 11,3 km/h (2 Bft) 95,74 %
02.02.2018 18:20 4,2 C 3,9 C 2,8 C 94 % 0 lf 1004,7 hPa 0,0 l/m 0 min 0 min 0 W/m 9,0 km/h (2 Bft) 91,30 %
02.02.2018 18:22 4,1 C 3,9 C 2,8 C 94 % 0 lf 1004,8 hPa 0,0 l/m 0 min 0 min 0 W/m 9,0 km/h (2 Bft) 95,74 %
02.02.2018 18:24 4,1 C 3,9 C 2,8 C 94 % 0 lf 1004,8 hPa 0,0 l/m 0 min 0 min 0 W/m 6,8 km/h (2 Bft) 91,49 %
02.02.2018 18:26 4,1 C 3,9 C 2,8 C 94 % 0 lf 1004,9 hPa 0,0 l/m 0 min 0 min 0 W/m 13,5 km/h (3 Bft) 95,74 %
02.02.2018 18:28 4,1 C 3,9 C 2,8 C 94 % 0 lf 1004,8 hPa 0,0 l/m 0 min 0 min 0 W/m 9,0 km/h (2 Bft) 93,62 %
02.02.2018 18:30 4,1 C 3,9 C 2,2 C 95 % 0 lf 1004,8 hPa 0,0 l/m 0 min 0 min 0 W/m 11,3 km/h (2 Bft) 95,74 %
02.02.2018 18:32 4,1 C 3,9 C 2,2 C 95 % 0 lf 1004,8 hPa 0,0 l/m 0 min 0 min 0 W/m 13,5 km/h (3 Bft) 95,65 %
02.02.2018 18:34 4,1 C 3,3 C 2,2 C 95 % 0 lf 1004,9 hPa 0,0 l/m 0 min 0 min 0 W/m 15,8 km/h (3 Bft) 100,00 %
02.02.2018 18:36 4,0 C 3,3 C 2,2 C 95 % 0 lf 1004,9 hPa 0,0 l/m 0 min 0 min 0 W/m 9,0 km/h (2 Bft) 100,00 %
02.02.2018 18:38 4,0 C 3,3 C 2,2 C 95 % 0 lf 1004,9 hPa 0,0 l/m 0 min 0 min 0 W/m 11,3 km/h (2 Bft) 100,00 %
02.02.2018 18:40 4,0 C 3,3 C 2,2 C 95 % 0 lf 1004,9 hPa 0,0 l/m 0 min 0 min 0 W/m 9,0 km/h (2 Bft) 100,00 %
02.02.2018 18:42 4,0 C 3,3 C 2,2 C 95 % 0 lf 1005,0 hPa 0,0 l/m 0 min 0 min 0 W/m 11,3 km/h (2 Bft) 100,00 %
02.02.2018 18:44 3,9 C 3,3 C 2,2 C 95 % 0 lf 1005,0 hPa 0,0 l/m 0 min 0 min 0 W/m 9,0 km/h (2 Bft) 97,83 %
02.02.2018 18:46 3,9 C 3,3 C 2,2 C 95 % 0 lf 1004,9 hPa 0,0 l/m 0 min 0 min 0 W/m 9,0 km/h (2 Bft) 95,74 %
02.02.2018 18:48 3,9 C 3,3 C 2,2 C 95 % 0 lf 1005,0 hPa 0,0 l/m 0 min 0 min 0 W/m 11,3 km/h (2 Bft) 100,00 %
02.02.2018 18:50 3,9 C 3,3 C 2,2 C 95 % 0 lf 1004,9 hPa 0,0 l/m 0 min 0 min 0 W/m 13,5 km/h (3 Bft) 97,87 %
02.02.2018 18:52 3,9 C 3,3 C 2,2 C 95 % 0 lf 1005,0 hPa 0,0 l/m 0 min 0 min 0 W/m 9,0 km/h (2 Bft) 97,87 %
02.02.2018 18:54 3,9 C 3,3 C 2,2 C 95 % 0 lf 1005,0 hPa 0,0 l/m 0 min 0 min 0 W/m 11,3 km/h (2 Bft) 97,87 %
02.02.2018 18:56 3,8 C 3,3 C 2,2 C 95 % 0 lf 1005,0 hPa 0,0 l/m 0 min 0 min 0 W/m 13,5 km/h (3 Bft) 97,83 %
02.02.2018 18:58 3,8 C 3,3 C 2,2 C 95 % 0 lf 1005,0 hPa 0,0 l/m 0 min 0 min 0 W/m 9,0 km/h (2 Bft) 95,74 %
02.02.2018 19:00 3,8 C 3,3 C 1,7 C 95 % 0 lf 1005,0 hPa 0,0 l/m 0 min 0 min 0 W/m 9,0 km/h (2 Bft) 97,87 %
02.02.2018 19:02 3,8 C 2,8 C 1,7 C 95 % 0 lf 1005,0 hPa 0,0 l/m 0 min 0 min 0 W/m 9,0 km/h (2 Bft) 95,74 %
02.02.2018 19:04 3,7 C 2,8 C 1,7 C 95 % 0 lf 1005,1 hPa 0,0 l/m 0 min 0 min 0 W/m 9,0 km/h (2 Bft) 95,74 %
02.02.2018 19:06 3,7 C 2,8 C 1,7 C 95 % 0 lf 1005,1 hPa 0,0 l/m 0 min 0 min 0 W/m 11,3 km/h (2 Bft) 91,30 %
02.02.2018 19:08 3,7 C 2,8 C 1,7 C 95 % 0 lf 1005,1 hPa 0,0 l/m 0 min 0 min 0 W/m 9,0 km/h (2 Bft) 95,74 %
02.02.2018 19:10 3,7 C 2,8 C 1,7 C 95 % 0 lf 1005,2 hPa 0,0 l/m 0 min 0 min 0 W/m 9,0 km/h (2 Bft) 97,87 %
02.02.2018 19:12 3,7 C 2,8 C 1,1 C 95 % 0 lf 1005,2 hPa 0,0 l/m 0 min 0 min 0 W/m 9,0 km/h (2 Bft) 93,62 %
02.02.2018 19:14 3,6 C 2,8 C 1,7 C 95 % 0 lf 1005,2 hPa 0,0 l/m 0 min 0 min 0 W/m 15,8 km/h (3 Bft) 97,87 %
02.02.2018 19:16 3,6 C 2,8 C 1,7 C 95 % 0 lf 1005,2 hPa 0,0 l/m 0 min 0 min 0 W/m 13,5 km/h (3 Bft) 97,87 %
02.02.2018 19:18 3,6 C 2,8 C 1,7 C 95 % 0 lf 1005,2 hPa 0,0 l/m 0 min 0 min 0 W/m 15,8 km/h (3 Bft) 97,83 %
02.02.2018 19:20 3,5 C 2,8 C 1,7 C 95 % 0 lf 1005,2 hPa 0,0 l/m 0 min 0 min 0 W/m 11,3 km/h (2 Bft) 95,74 %
02.02.2018 19:22 3,5 C 2,8 C 1,7 C 95 % 0 lf 1005,3 hPa 0,0 l/m 0 min 0 min 0 W/m 11,3 km/h (2 Bft) 93,62 %
02.02.2018 19:24 3,4 C 2,8 C 1,7 C 95 % 0 lf 1005,3 hPa 0,0 l/m 0 min 0 min 0 W/m 6,8 km/h (2 Bft) 95,74 %
02.02.2018 19:26 3,4 C 2,8 C 1,7 C 95 % 0 lf 1005,3 hPa 0,0 l/m 0 min 0 min 0 W/m 6,8 km/h (2 Bft) 95,74 %
02.02.2018 19:28 3,4 C 2,8 C 1,7 C 95 % 0 lf 1005,3 hPa 0,0 l/m 0 min 0 min 0 W/m 9,0 km/h (2 Bft) 95,74 %
02.02.2018 19:30 3,4 C 2,8 C 1,7 C 95 % 0 lf 1005,4 hPa 0,0 l/m 0 min 0 min 0 W/m 9,0 km/h (2 Bft) 100,00 %
02.02.2018 19:32 3,4 C 2,8 C 1,7 C 95 % 0 lf 1005,4 hPa 0,0 l/m 0 min 0 min 0 W/m 6,8 km/h (2 Bft) 100,00 %
02.02.2018 19:34 3,4 C 2,8 C 1,7 C 95 % 0 lf 1005,3 hPa 0,0 l/m 0 min 0 min 0 W/m 9,0 km/h (2 Bft) 100,00 %
02.02.2018 19:36 3,3 C 2,8 C 1,7 C 95 % 0 lf 1005,4 hPa 0,0 l/m 0 min 0 min 0 W/m 9,0 km/h (2 Bft) 95,74 %
02.02.2018 19:38 3,3 C 2,8 C 1,7 C 95 % 0 lf 1005,4 hPa 0,0 l/m 0 min 0 min 0 W/m 11,3 km/h (2 Bft) 100,00 %
02.02.2018 19:40 3,3 C 2,8 C 1,7 C 95 % 0 lf 1005,4 hPa 0,0 l/m 0 min 0 min 0 W/m 13,5 km/h (3 Bft) 93,62 %
02.02.2018 19:42 3,3 C 2,8 C 1,7 C 95 % 0 lf 1005,4 hPa 0,0 l/m 0 min 0 min 0 W/m 18,0 km/h (3 Bft) 100,00 %
02.02.2018 19:44 3,3 C 2,8 C 1,7 C 95 % 0 lf 1005,5 hPa 0,0 l/m 0 min 0 min 0 W/m 11,3 km/h (2 Bft) 97,87 %
02.02.2018 19:46 3,3 C 2,8 C 1,7 C 95 % 0 lf 1005,5 hPa 0,0 l/m 0 min 0 min 0 W/m 15,8 km/h (3 Bft) 97,87 %
02.02.2018 19:48 3,3 C 2,8 C 2,2 C 95 % 0 lf 1005,5 hPa 0,0 l/m 0 min 0 min 0 W/m 11,3 km/h (2 Bft) 100,00 %
02.02.2018 19:50 3,3 C 2,8 C 2,2 C 95 % 0 lf 1005,5 hPa 0,0 l/m 0 min 0 min 0 W/m 11,3 km/h (2 Bft) 98,08 %
02.02.2018 19:52 3,3 C 2,8 C 2,2 C 95 % 0 lf 1005,6 hPa 0,0 l/m 0 min 0 min 0 W/m 15,8 km/h (3 Bft) 97,62 %
02.02.2018 19:54 3,4 C 2,8 C 1,7 C 95 % 0 lf 1005,6 hPa 0,0 l/m 0 min 0 min 0 W/m 9,0 km/h (2 Bft) 100,00 %
02.02.2018 19:56 3,4 C 2,8 C 1,7 C 95 % 0 lf 1005,6 hPa 0,0 l/m 0 min 0 min 0 W/m 9,0 km/h (2 Bft) 97,87 %
02.02.2018 19:58 3,4 C 2,8 C 1,7 C 95 % 0 lf 1005,6 hPa 0,0 l/m 0 min 0 min 0 W/m 13,5 km/h (3 Bft) 100,00 %
02.02.2018 20:00 3,4 C 2,8 C 1,7 C 95 % 0 lf 1005,6 hPa 0,0 l/m 0 min 0 min 0 W/m 9,0 km/h (2 Bft) 97,87 %
02.02.2018 20:02 3,4 C 2,8 C 1,7 C 95 % 0 lf 1005,7 hPa 0,0 l/m 0 min 0 min 0 W/m 11,3 km/h (2 Bft) 100,00 %
02.02.2018 20:04 3,4 C 2,8 C 1,7 C 95 % 0 lf 1005,6 hPa 0,0 l/m 0 min 0 min 0 W/m 11,3 km/h (2 Bft) 97,83 %
02.02.2018 20:06 3,4 C 2,8 C 1,7 C 95 % 0 lf 1005,7 hPa 0,0 l/m 0 min 0 min 0 W/m 11,3 km/h (2 Bft) 100,00 %
02.02.2018 20:08 3,4 C 2,8 C 1,7 C 95 % 0 lf 1005,7 hPa 0,0 l/m 0 min 0 min 0 W/m 13,5 km/h (3 Bft) 100,00 %
02.02.2018 20:10 3,4 C 2,8 C 1,7 C 95 % 0 lf 1005,7 hPa 0,0 l/m 0 min 0 min 0 W/m 11,3 km/h (2 Bft) 100,00 %
02.02.2018 20:12 3,3 C 2,8 C 1,7 C 95 % 0 lf 1005,7 hPa 0,0 l/m 0 min 0 min 0 W/m 9,0 km/h (2 Bft) 97,87 %
02.02.2018 20:14 3,3 C 2,8 C 1,7 C 95 % 0 lf 1005,7 hPa 0,0 l/m 0 min 0 min 0 W/m 15,8 km/h (3 Bft) 100,00 %
02.02.2018 20:16 3,4 C 2,8 C 1,7 C 95 % 0 lf 1005,7 hPa 0,0 l/m 0 min 0 min 0 W/m 15,8 km/h (3 Bft) 98,08 %
02.02.2018 20:18 3,3 C 2,8 C 1,7 C 95 % 0 lf 1005,8 hPa 0,0 l/m 0 min 0 min 0 W/m 11,3 km/h (2 Bft) 97,56 %
02.02.2018 20:20 3,3 C 2,8 C 1,7 C 95 % 0 lf 1005,8 hPa 0,0 l/m 0 min 0 min 0 W/m 6,8 km/h (2 Bft) 98,11 %
02.02.2018 20:22 3,3 C 2,8 C 2,2 C 95 % 0 lf 1005,8 hPa 0,0 l/m 0 min 0 min 0 W/m 18,0 km/h (3 Bft) 97,73 %
02.02.2018 20:24 3,3 C 3,3 C 2,2 C 96 % 0 lf 1005,9 hPa 0,0 l/m 0 min 0 min 0 W/m 18,0 km/h (3 Bft) 95,74 %
02.02.2018 20:26 3,3 C 3,3 C 2,2 C 96 % 0 lf 1005,9 hPa 0,0 l/m 0 min 0 min 0 W/m 18,0 km/h (3 Bft) 97,87 %
02.02.2018 20:28 3,4 C 3,3 C 2,2 C 96 % 0 lf 1005,9 hPa 0,0 l/m 0 min 0 min 0 W/m 15,8 km/h (3 Bft) 95,65 %
02.02.2018 20:30 3,4 C 3,3 C 2,2 C 96 % 0 lf 1006,0 hPa 0,0 l/m 0 min 0 min 0 W/m 15,8 km/h (3 Bft) 91,49 %
02.02.2018 20:32 3,4 C 3,3 C 2,2 C 96 % 0 lf 1006,0 hPa 0,0 l/m 0 min 0 min 0 W/m 15,8 km/h (3 Bft) 93,62 %
02.02.2018 20:34 3,4 C 3,3 C 2,2 C 96 % 0 lf 1006,0 hPa 0,0 l/m 0 min 0 min 0 W/m 18,0 km/h (3 Bft) 91,49 %
02.02.2018 20:36 3,4 C 3,3 C 2,2 C 96 % 0 lf 1005,9 hPa 0,0 l/m 0 min 0 min 0 W/m 15,8 km/h (3 Bft) 95,74 %
02.02.2018 20:38 3,4 C 3,3 C 2,2 C 96 % 0 lf 1006,1 hPa 0,0 l/m 0 min 0 min 0 W/m 18,0 km/h (3 Bft) 95,65 %
02.02.2018 20:40 3,4 C 3,3 C 2,2 C 96 % 0 lf 1006,1 hPa 0,0 l/m 0 min 0 min 0 W/m 11,3 km/h (2 Bft) 95,74 %
02.02.2018 20:42 3,4 C 3,3 C 2,2 C 96 % 0 lf 1006,1 hPa 0,0 l/m 0 min 0 min 0 W/m 13,5 km/h (3 Bft) 95,74 %
02.02.2018 20:44 3,4 C 3,3 C 2,2 C 96 % 0 lf 1006,2 hPa 0,0 l/m 0 min 0 min 0 W/m 13,5 km/h (3 Bft) 93,62 %
02.02.2018 20:46 3,4 C 3,3 C 2,2 C 96 % 0 lf 1006,2 hPa 0,0 l/m 0 min 0 min 0 W/m 15,8 km/h (3 Bft) 93,62 %
02.02.2018 20:48 3,4 C 3,3 C 2,2 C 96 % 0 lf 1006,2 hPa 0,0 l/m 0 min 0 min 0 W/m 11,3 km/h (2 Bft) 89,36 %
02.02.2018 20:50 3,4 C 3,3 C 1,7 C 96 % 0 lf 1006,3 hPa 0,0 l/m 0 min 0 min 0 W/m 13,5 km/h (3 Bft) 93,48 %
02.02.2018 20:52 3,4 C 3,3 C 1,7 C 96 % 0 lf 1006,3 hPa 0,0 l/m 0 min 0 min 0 W/m 13,5 km/h (3 Bft) 93,62 %
02.02.2018 20:54 3,4 C 3,3 C 1,7 C 96 % 0 lf 1006,4 hPa 0,0 l/m 0 min 0 min 0 W/m 13,5 km/h (3 Bft) 93,62 %
02.02.2018 20:56 3,4 C 3,3 C 1,7 C 96 % 0 lf 1006,4 hPa 0,0 l/m 0 min 0 min 0 W/m 15,8 km/h (3 Bft) 93,62 %
02.02.2018 20:58 3,4 C 3,3 C 1,7 C 96 % 0 lf 1006,4 hPa 0,0 l/m 0 min 0 min 0 W/m 11,3 km/h (2 Bft) 93,62 %
02.02.2018 21:00 3,4 C 3,3 C 1,7 C 96 % 0 lf 1006,3 hPa 0,0 l/m 0 min 0 min 0 W/m 13,5 km/h (3 Bft) 91,49 %
02.02.2018 21:02 3,4 C 3,3 C 1,7 C 96 % 0 lf 1006,3 hPa 0,0 l/m 0 min 0 min 0 W/m 11,3 km/h (2 Bft) 91,30 %
02.02.2018 21:04 3,4 C 2,8 C 1,7 C 96 % 0 lf 1006,4 hPa 0,0 l/m 0 min 0 min 0 W/m 15,8 km/h (3 Bft) 91,49 %
02.02.2018 21:06 3,4 C 2,8 C 1,7 C 96 % 0 lf 1006,2 hPa 0,0 l/m 0 min 0 min 0 W/m 9,0 km/h (2 Bft) 93,62 %
02.02.2018 21:08 3,4 C 2,8 C 1,7 C 96 % 0 lf 1006,3 hPa 0,0 l/m 0 min 0 min 0 W/m 9,0 km/h (2 Bft) 95,74 %
02.02.2018 21:10 3,4 C 2,8 C 1,7 C 96 % 0 lf 1006,4 hPa 0,0 l/m 0 min 0 min 0 W/m 9,0 km/h (2 Bft) 97,87 %
02.02.2018 21:12 3,3 C 2,8 C 1,7 C 96 % 0 lf 1006,4 hPa 0,0 l/m 0 min 0 min 0 W/m 9,0 km/h (2 Bft) 93,62 %
02.02.2018 21:14 3,3 C 2,8 C 1,7 C 96 % 0 lf 1006,4 hPa 0,0 l/m 0 min 0 min 0 W/m 9,0 km/h (2 Bft) 95,65 %
02.02.2018 21:16 3,3 C 2,8 C 1,7 C 96 % 0 lf 1006,4 hPa 0,0 l/m 0 min 0 min 0 W/m 6,8 km/h (2 Bft) 97,87 %
02.02.2018 21:18 3,3 C 2,8 C 1,7 C 96 % 0 lf 1006,4 hPa 0,0 l/m 0 min 0 min 0 W/m 6,8 km/h (2 Bft) 100,00 %
02.02.2018 21:20 3,3 C 3,3 C 2,2 C 96 % 0 lf 1006,4 hPa 0,0 l/m 0 min 0 min 0 W/m 6,8 km/h (2 Bft) 97,87 %
02.02.2018 21:22 3,3 C 3,3 C 2,2 C 96 % 0 lf 1006,4 hPa 0,0 l/m 0 min 0 min 0 W/m 4,5 km/h (1 Bft) 97,87 %
02.02.2018 21:24 3,3 C 3,3 C 2,2 C 96 % 2 lf 1006,4 hPa 0,0 l/m 0 min 0 min 0 W/m 9,0 km/h (2 Bft) 100,00 %
02.02.2018 21:26 3,3 C 3,3 C 2,2 C 96 % 4 lf 1006,4 hPa 0,0 l/m 0 min 2 min 0 W/m 6,8 km/h (2 Bft) 100,00 %
02.02.2018 21:28 3,3 C 3,3 C 2,2 C 96 % 4 lf 1006,3 hPa 0,0 l/m 0 min 0 min 0 W/m 9,0 km/h (2 Bft) 100,00 %
02.02.2018 21:30 3,3 C 3,3 C 2,2 C 96 % 4 lf 1006,3 hPa 0,0 l/m 0 min 0 min 0 W/m 9,0 km/h (2 Bft) 97,87 %
02.02.2018 21:32 3,3 C 3,3 C 2,2 C 96 % 4 lf 1006,3 hPa 0,0 l/m 0 min 0 min 0 W/m 6,8 km/h (2 Bft) 97,87 %
02.02.2018 21:34 3,3 C 3,3 C 2,2 C 96 % 4 lf 1006,4 hPa 0,0 l/m 0 min 0 min 0 W/m 6,8 km/h (2 Bft) 100,00 %
02.02.2018 21:36 3,3 C 3,3 C 2,2 C 96 % 4 lf 1006,4 hPa 0,0 l/m 0 min 0 min 0 W/m 6,8 km/h (2 Bft) 97,87 %
02.02.2018 21:38 3,3 C 3,3 C 2,2 C 96 % 4 lf 1006,4 hPa 0,0 l/m 0 min 0 min 0 W/m 4,5 km/h (1 Bft) 97,83 %
02.02.2018 21:40 3,3 C 3,3 C 2,2 C 96 % 4 lf 1006,4 hPa 0,0 l/m 0 min 0 min 0 W/m 6,8 km/h (2 Bft) 97,87 %
02.02.2018 21:42 3,3 C 3,3 C 2,2 C 96 % 4 lf 1006,4 hPa 0,0 l/m 0 min 0 min 0 W/m 6,8 km/h (2 Bft) 95,74 %
02.02.2018 21:44 3,3 C 3,3 C 2,2 C 96 % 4 lf 1006,5 hPa 0,0 l/m 0 min 0 min 0 W/m 6,8 km/h (2 Bft) 97,87 %
02.02.2018 21:46 3,3 C 3,3 C 2,2 C 96 % 3 lf 1006,5 hPa 0,0 l/m 0 min 0 min 0 W/m 6,8 km/h (2 Bft) 95,74 %
02.02.2018 21:48 3,3 C 3,3 C 2,2 C 96 % 3 lf 1006,5 hPa 0,0 l/m 0 min 0 min 0 W/m 4,5 km/h (1 Bft) 97,87 %
02.02.2018 21:50 3,3 C 3,3 C 2,2 C 96 % 3 lf 1006,5 hPa 0,0 l/m 0 min 0 min 0 W/m 4,5 km/h (1 Bft) 97,83 %
02.02.2018 21:52 3,3 C 3,3 C 2,2 C 96 % 3 lf 1006,5 hPa 0,0 l/m 0 min 0 min 0 W/m 4,5 km/h (1 Bft) 97,87 %
02.02.2018 21:54 3,3 C 3,3 C 2,2 C 96 % 3 lf 1006,5 hPa 0,0 l/m 0 min 0 min 0 W/m 6,8 km/h (2 Bft) 97,87 %
02.02.2018 21:56 3,3 C 3,3 C 2,2 C 96 % 3 lf 1006,5 hPa 0,0 l/m 0 min 0 min 0 W/m 4,5 km/h (1 Bft) 97,87 %
02.02.2018 21:58 3,3 C 3,3 C 2,2 C 96 % 3 lf 1006,5 hPa 0,0 l/m 0 min 0 min 0 W/m 6,8 km/h (2 Bft) 95,74 %
02.02.2018 22:00 3,3 C 3,3 C 2,2 C 96 % 3 lf 1006,5 hPa 0,0 l/m 0 min 0 min 0 W/m 4,5 km/h (1 Bft) 97,83 %
02.02.2018 22:02 3,3 C 3,3 C 2,2 C 96 % 3 lf 1006,6 hPa 0,0 l/m 0 min 0 min 0 W/m 6,8 km/h (2 Bft) 97,87 %
02.02.2018 22:04 3,3 C 3,3 C 2,2 C 96 % 3 lf 1006,6 hPa 0,0 l/m 0 min 0 min 0 W/m 4,5 km/h (1 Bft) 97,87 %
02.02.2018 22:06 3,3 C 3,3 C 2,2 C 96 % 3 lf 1006,7 hPa 0,0 l/m 0 min 0 min 0 W/m 6,8 km/h (2 Bft) 97,87 %
02.02.2018 22:08 3,3 C 3,3 C 2,2 C 96 % 2 lf 1006,6 hPa 0,0 l/m 0 min 0 min 0 W/m 6,8 km/h (2 Bft) 97,87 %
02.02.2018 22:10 3,3 C 3,3 C 2,2 C 96 % 2 lf 1006,7 hPa 0,0 l/m 0 min 0 min 0 W/m 9,0 km/h (2 Bft) 97,87 %
02.02.2018 22:12 3,4 C 3,3 C 2,2 C 96 % 2 lf 1006,7 hPa 0,0 l/m 0 min 0 min 0 W/m 6,8 km/h (2 Bft) 95,65 %
02.02.2018 22:14 3,3 C 3,3 C 2,2 C 96 % 2 lf 1006,7 hPa 0,0 l/m 0 min 0 min 0 W/m 6,8 km/h (2 Bft) 95,74 %
02.02.2018 22:16 3,4 C 3,3 C 2,2 C 96 % 2 lf 1006,7 hPa 0,0 l/m 0 min 0 min 0 W/m 6,8 km/h (2 Bft) 97,87 %
02.02.2018 22:18 3,4 C 3,3 C 2,2 C 96 % 2 lf 1006,8 hPa 0,0 l/m 0 min 0 min 0 W/m 9,0 km/h (2 Bft) 97,87 %
02.02.2018 22:20 3,4 C 3,3 C 2,2 C 96 % 1 lf 1006,8 hPa 0,0 l/m 0 min 0 min 0 W/m 6,8 km/h (2 Bft) 97,87 %
02.02.2018 22:22 3,4 C 3,3 C 2,2 C 96 % 1 lf 1006,9 hPa 0,0 l/m 0 min 0 min 0 W/m 9,0 km/h (2 Bft) 97,87 %
02.02.2018 22:24 3,4 C 3,3 C 2,2 C 96 % 1 lf 1006,8 hPa 0,0 l/m 0 min 0 min 0 W/m 9,0 km/h (2 Bft) 97,83 %
02.02.2018 22:26 3,4 C 3,3 C 2,2 C 96 % 1 lf 1006,9 hPa 0,0 l/m 0 min 0 min 0 W/m 13,5 km/h (3 Bft) 95,74 %
02.02.2018 22:28 3,4 C 3,3 C 2,2 C 96 % 0 lf 1006,9 hPa 0,0 l/m 0 min 0 min 0 W/m 9,0 km/h (2 Bft) 97,87 %
02.02.2018 22:30 3,4 C 3,3 C 2,2 C 96 % 0 lf 1006,9 hPa 0,0 l/m 0 min 0 min 0 W/m 6,8 km/h (2 Bft) 91,49 %
02.02.2018 22:32 3,4 C 3,3 C 2,2 C 96 % 0 lf 1006,9 hPa 0,0 l/m 0 min 0 min 0 W/m 11,3 km/h (2 Bft) 97,87 %
02.02.2018 22:34 3,4 C 3,3 C 2,2 C 96 % 0 lf 1006,9 hPa 0,0 l/m 0 min 0 min 0 W/m 15,8 km/h (3 Bft) 97,87 %
02.02.2018 22:36 3,4 C 3,3 C 2,2 C 96 % 0 lf 1006,9 hPa 0,0 l/m 0 min 0 min 0 W/m 9,0 km/h (2 Bft) 97,83 %
02.02.2018 22:38 3,4 C 3,3 C 2,2 C 96 % 0 lf 1007,0 hPa 0,0 l/m 0 min 0 min 0 W/m 13,5 km/h (3 Bft) 94,00 %
02.02.2018 22:40 3,4 C 3,3 C 2,2 C 96 % 0 lf 1007,0 hPa 0,0 l/m 0 min 0 min 0 W/m 13,5 km/h (3 Bft) 95,74 %
02.02.2018 22:42 3,4 C 3,3 C 2,2 C 96 % 0 lf 1007,0 hPa 0,0 l/m 0 min 0 min 0 W/m 15,8 km/h (3 Bft) 95,74 %
02.02.2018 22:44 3,4 C 3,3 C 2,2 C 96 % 0 lf 1007,0 hPa 0,0 l/m 0 min 0 min 0 W/m 11,3 km/h (2 Bft) 93,62 %
02.02.2018 22:46 3,4 C 3,3 C 2,2 C 96 % 0 lf 1006,9 hPa 0,0 l/m 0 min 0 min 0 W/m 13,5 km/h (3 Bft) 93,48 %
02.02.2018 22:48 3,4 C 3,3 C 2,2 C 96 % 0 lf 1007,0 hPa 0,0 l/m 0 min 0 min 0 W/m 9,0 km/h (2 Bft) 95,74 %
02.02.2018 22:50 3,5 C 3,3 C 2,2 C 96 % 0 lf 1007,0 hPa 0,0 l/m 0 min 0 min 0 W/m 15,8 km/h (3 Bft) 93,62 %
02.02.2018 22:52 3,5 C 3,3 C 2,2 C 96 % 0 lf 1007,0 hPa 0,0 l/m 0 min 0 min 0 W/m 15,8 km/h (3 Bft) 100,00 %
02.02.2018 22:54 3,5 C 3,3 C 2,2 C 96 % 0 lf 1007,0 hPa 0,0 l/m 0 min 0 min 0 W/m 13,5 km/h (3 Bft) 97,87 %
02.02.2018 22:56 3,5 C 3,3 C 2,2 C 96 % 0 lf 1006,9 hPa 0,0 l/m 0 min 0 min 0 W/m 11,3 km/h (2 Bft) 95,74 %
02.02.2018 22:58 3,5 C 3,3 C 2,2 C 96 % 0 lf 1007,0 hPa 0,0 l/m 0 min 0 min 0 W/m 11,3 km/h (2 Bft) 97,83 %
02.02.2018 23:00 3,5 C 3,3 C 2,2 C 96 % 0 lf 1006,9 hPa 0,0 l/m 0 min 0 min 0 W/m 13,5 km/h (3 Bft) 95,74 %
02.02.2018 23:02 3,5 C 3,3 C 2,2 C 96 % 0 lf 1006,9 hPa 0,0 l/m 0 min 0 min 0 W/m 11,3 km/h (2 Bft) 97,87 %
02.02.2018 23:04 3,5 C 3,3 C 2,2 C 96 % 0 lf 1007,0 hPa 0,0 l/m 0 min 0 min 0 W/m 9,0 km/h (2 Bft) 93,62 %
02.02.2018 23:06 3,5 C 3,3 C 2,2 C 96 % 0 lf 1006,9 hPa 0,0 l/m 0 min 0 min 0 W/m 9,0 km/h (2 Bft) 95,74 %
02.02.2018 23:08 3,5 C 3,3 C 2,2 C 96 % 0 lf 1007,0 hPa 0,0 l/m 0 min 0 min 0 W/m 15,8 km/h (3 Bft) 95,74 %
02.02.2018 23:10 3,5 C 3,3 C 2,2 C 96 % 0 lf 1007,0 hPa 0,0 l/m 0 min 0 min 0 W/m 15,8 km/h (3 Bft) 97,83 %
02.02.2018 23:12 3,5 C 3,3 C 2,2 C 96 % 0 lf 1006,9 hPa 0,0 l/m 0 min 0 min 0 W/m 9,0 km/h (2 Bft) 97,87 %
02.02.2018 23:14 3,5 C 3,3 C 2,2 C 96 % 0 lf 1006,9 hPa 0,0 l/m 0 min 0 min 0 W/m 9,0 km/h (2 Bft) 95,74 %
02.02.2018 23:16 3,5 C 3,3 C 2,2 C 96 % 0 lf 1006,9 hPa 0,0 l/m 0 min 0 min 0 W/m 11,3 km/h (2 Bft) 93,62 %
02.02.2018 23:18 3,5 C 3,3 C 2,2 C 96 % 0 lf 1006,9 hPa 0,0 l/m 0 min 0 min 0 W/m 11,3 km/h (2 Bft) 95,74 %
02.02.2018 23:20 3,5 C 3,3 C 2,2 C 96 % 0 lf 1006,9 hPa 0,0 l/m 0 min 0 min 0 W/m 13,5 km/h (3 Bft) 93,62 %
02.02.2018 23:22 3,5 C 3,3 C 2,2 C 96 % 0 lf 1006,9 hPa 0,0 l/m 0 min 0 min 0 W/m 13,5 km/h (3 Bft) 91,30 %
02.02.2018 23:24 3,5 C 3,3 C 2,2 C 96 % 0 lf 1007,0 hPa 0,0 l/m 0 min 0 min 0 W/m 9,0 km/h (2 Bft) 91,49 %
02.02.2018 23:26 3,5 C 3,3 C 2,2 C 96 % 0 lf 1007,0 hPa 0,0 l/m 0 min 0 min 0 W/m 18,0 km/h (3 Bft) 93,62 %
02.02.2018 23:28 3,4 C 3,3 C 2,2 C 96 % 0 lf 1006,9 hPa 0,0 l/m 0 min 0 min 0 W/m 18,0 km/h (3 Bft) 95,74 %
02.02.2018 23:30 3,4 C 3,3 C 1,7 C 96 % 0 lf 1007,0 hPa 0,0 l/m 0 min 0 min 0 W/m 13,5 km/h (3 Bft) 95,74 %
02.02.2018 23:32 3,4 C 3,3 C 1,7 C 96 % 0 lf 1007,0 hPa 0,0 l/m 0 min 0 min 0 W/m 13,5 km/h (3 Bft) 95,65 %
02.02.2018 23:34 3,4 C 3,3 C 1,7 C 96 % 0 lf 1007,0 hPa 0,0 l/m 0 min 0 min 0 W/m 9,0 km/h (2 Bft) 95,74 %
02.02.2018 23:36 3,4 C 3,3 C 1,7 C 96 % 0 lf 1007,0 hPa 0,0 l/m 0 min 0 min 0 W/m 13,5 km/h (3 Bft) 93,62 %
02.02.2018 23:38 3,4 C 3,3 C 1,7 C 96 % 0 lf 1007,0 hPa 0,0 l/m 0 min 0 min 0 W/m 11,3 km/h (2 Bft) 95,74 %
02.02.2018 23:40 3,4 C 3,3 C 1,7 C 96 % 0 lf 1007,0 hPa 0,0 l/m 0 min 0 min 0 W/m 9,0 km/h (2 Bft) 93,62 %
02.02.2018 23:42 3,4 C 3,3 C 1,7 C 96 % 0 lf 1007,0 hPa 0,0 l/m 0 min 0 min 0 W/m 9,0 km/h (2 Bft) 95,74 %
02.02.2018 23:44 3,4 C 3,3 C 1,7 C 96 % 0 lf 1007,0 hPa 0,0 l/m 0 min 0 min 0 W/m 11,3 km/h (2 Bft) 95,65 %
02.02.2018 23:46 3,3 C 2,8 C 1,7 C 96 % 0 lf 1007,0 hPa 0,0 l/m 0 min 0 min 0 W/m 11,3 km/h (2 Bft) 95,74 %
02.02.2018 23:48 3,3 C 2,8 C 1,7 C 96 % 0 lf 1006,9 hPa 0,0 l/m 0 min 0 min 0 W/m 9,0 km/h (2 Bft) 97,87 %
02.02.2018 23:50 3,3 C 2,8 C 1,7 C 96 % 0 lf 1007,0 hPa 0,0 l/m 0 min 0 min 0 W/m 11,3 km/h (2 Bft) 97,87 %
02.02.2018 23:52 3,3 C 2,8 C 1,7 C 96 % 0 lf 1007,0 hPa 0,0 l/m 0 min 0 min 0 W/m 11,3 km/h (2 Bft) 95,74 %
02.02.2018 23:54 3,3 C 2,8 C 1,7 C 96 % 0 lf 1007,1 hPa 0,0 l/m 0 min 0 min 0 W/m 9,0 km/h (2 Bft) 97,87 %
02.02.2018 23:56 3,3 C 2,8 C 1,7 C 96 % 0 lf 1007,0 hPa 0,0 l/m 0 min 0 min 0 W/m 11,3 km/h (2 Bft) 93,48 %
02.02.2018 23:58 3,3 C 2,8 C 1,7 C 95 % 0 lf 1007,1 hPa 0,0 l/m 0 min 0 min 0 W/m 11,3 km/h (2 Bft) 95,74 %
_ Min-Zeit 00:26 00:10 00:00 01:50 00:00 07:06 - - - - 21:22 17:58
Minimum _ 2,1 C 1,7 C 0,6 C 90 % 0 lf 999,7 hPa - - - - 4,5 km/h (1 Bft) 87,23 %
_ Max-Zeit 13:44 13:04 13:08 11:14 03:08 23:54 03:14 13:08 11:08 13:10 06:56 00:04
Maximum _ 6,1 C 10,6 C 6,1 C 97 % 15 lf 1007,1 hPa 0,2 l/m 4 min 4 min 396 W/m 51,8 km/h
W (7 Bft)
100,00 %
Durchschnitt _ 3,6 C 3,7 C 2,4 C 94 % 5 lf 1002,3 hPa #1,4 l/m #40 min. #5:06 h 82 W/m 19,7 km/h (3 Bft) 96,38 %
© 2018 W. Hausmann